GFSWCAN_sfc_wetblb_057.txt.gz
Wetbulb
52.50 52.60 52.75 52.79 52.71 52.71 52.77 52.73 51.96 52.21 52.73 53.04 53.39 53.53 53.88 53.88 54.00 52.55 50.53 50.14 44.48 39.28 40.60 42.95 43.34 40.76 40.67 40.08 35.89 39.47 38.98 39.78 39.04 34.86 34.57 34.28 33.79 35.36 35.37 37.46 35.21 35.94 34.76 35.69 36.81 36.40 34.60 48.01 48.28 42.77 48.55 52.61 51.74 52.20
52.28 52.27 52.33 52.38 52.33 52.25 52.43 52.38 52.46 52.50 52.50 52.91 53.14 53.30 53.69 53.78 54.02 53.58 48.78 51.08 50.18 42.63 42.33 46.19 46.33 46.83 46.12 45.27 41.53 41.83 39.03 39.41 40.71 36.39 36.41 36.67 33.92 36.84 35.03 31.85 39.72 33.30 37.68 34.89 37.40 35.01 44.18 47.20 47.37 49.55 49.65 49.01 51.26 50.87
52.01 51.90 52.09 52.13 52.17 51.95 52.21 52.02 52.03 52.34 52.65 52.95 53.39 53.69 53.88 53.92 53.82 53.37 50.32 49.29 46.95 42.75 42.79 43.57 44.35 49.04 49.49 48.98 49.44 39.80 42.27 43.25 41.19 42.91 38.23 36.22 33.29 37.24 32.13 34.72 36.47 40.04 42.49 36.93 37.35 41.73 43.50 45.17 48.68 47.58 48.50 48.10 50.74 50.44
51.80 51.90 51.96 51.92 51.89 51.52 51.99 52.09 52.11 52.34 52.71 53.16 53.59 54.00 53.98 53.92 53.72 53.21 49.70 49.41 48.01 43.92 38.79 42.42 50.28 46.56 50.13 49.93 48.92 48.27 45.70 45.87 45.47 43.34 37.84 36.33 34.61 39.16 34.94 36.26 35.65 39.17 39.54 36.39 35.94 39.88 40.88 44.63 45.03 46.39 47.75 48.82 49.79 50.66
51.50 51.57 51.65 51.67 51.85 51.59 52.03 51.42 52.00 52.32 52.92 53.33 53.61 53.76 53.74 53.33 53.71 53.76 51.35 50.21 51.11 45.28 39.35 41.04 46.69 47.93 48.55 48.00 46.90 47.84 46.63 45.17 41.74 38.98 37.35 35.46 37.71 36.54 37.39 37.78 36.50 39.38 37.03 35.15 33.67 38.83 38.28 39.47 43.61 45.51 44.79 45.42 47.57 48.96
51.13 51.14 51.27 51.62 51.30 51.39 51.90 51.92 52.44 52.83 53.22 53.54 53.66 53.45 53.08 53.70 52.85 51.52 45.88 50.20 51.64 50.12 42.55 38.65 47.14 46.62 47.73 47.04 44.99 45.49 45.76 44.25 42.77 39.43 38.46 39.80 42.65 38.52 34.06 32.53 37.99 40.73 41.04 41.13 38.55 40.80 40.79 41.54 43.11 44.97 44.45 45.34 46.96 48.40
50.76 51.14 51.35 51.73 51.46 51.55 51.61 52.09 52.47 53.12 53.35 53.48 53.49 53.71 53.66 52.81 52.42 48.33 46.25 49.57 51.69 50.93 43.35 39.44 41.45 45.45 46.80 45.87 44.36 43.72 45.37 42.76 41.82 39.16 36.14 36.11 36.92 38.67 34.17 31.44 37.66 40.06 42.31 43.11 45.51 45.56 44.45 45.72 42.56 46.19 46.48 47.08 48.43 49.48
50.91 51.00 51.37 51.75 51.33 51.41 51.46 52.04 52.81 53.27 53.41 53.06 53.26 52.50 51.49 50.64 49.05 49.42 50.38 51.56 52.19 46.93 44.33 39.72 40.67 43.25 46.37 43.36 41.00 43.95 41.43 41.26 40.56 38.90 38.66 36.09 36.81 35.38 31.04 36.62 40.11 42.69 42.24 42.71 44.95 47.70 49.52 49.68 48.60 47.51 47.49 46.56 45.87 46.39
50.79 51.12 51.28 51.27 51.47 51.15 51.20 52.05 53.15 53.27 53.07 52.81 53.12 52.79 52.94 51.58 50.65 49.45 51.55 51.30 51.75 47.30 42.03 42.04 39.23 39.85 45.68 44.13 42.53 41.15 41.56 36.13 41.23 35.95 36.57 35.84 33.08 31.81 37.24 39.61 39.72 42.17 42.26 41.40 44.71 45.85 47.42 48.40 47.72 46.91 46.13 46.22 45.40 46.17
50.75 51.05 51.25 51.10 51.36 51.74 52.39 52.79 53.27 52.68 52.67 53.17 51.96 51.77 49.59 51.51 52.33 51.61 48.76 46.19 45.91 46.44 46.18 38.88 45.25 42.76 45.00 44.07 42.07 39.92 39.64 37.98 35.06 38.59 39.95 35.44 32.72 42.48 43.93 44.41 43.07 44.05 44.26 43.41 42.59 43.06 44.58 44.85 47.11 47.50 45.45 46.16 47.04 46.97
50.81 50.92 51.28 51.53 51.76 51.98 52.43 53.03 53.10 52.86 52.53 52.18 52.21 52.80 51.41 52.20 50.86 48.10 47.62 46.96 49.97 43.05 46.16 43.93 45.37 46.27 48.18 42.39 42.51 44.19 40.99 40.64 36.28 39.40 38.54 36.16 33.63 40.68 44.57 44.61 45.04 46.01 44.96 44.38 45.22 46.31 46.36 45.90 45.95 48.17 49.15 47.94 48.25 48.68
50.81 50.83 51.11 51.44 51.82 52.05 52.55 52.78 52.81 52.67 57.02 53.00 52.12 57.36 53.65 50.08 48.85 47.53 45.84 48.75 48.15 45.33 50.34 48.77 48.03 48.64 49.11 48.55 43.12 44.82 42.60 42.72 36.82 42.92 36.53 32.54 39.12 43.66 44.40 44.42 44.77 45.68 45.80 45.17 45.66 44.93 45.39 45.64 45.97 46.28 47.62 50.15 51.15 52.01
50.68 50.84 51.03 51.30 51.70 52.21 52.51 52.93 53.30 53.08 52.73 57.12 54.88 53.42 51.53 49.57 42.11 40.83 37.93 43.48 43.41 47.27 47.33 47.89 49.13 51.25 50.79 49.44 45.88 45.64 42.28 39.83 44.42 36.99 32.54 38.07 42.42 43.87 44.39 44.89 43.64 45.65 46.61 46.25 46.07 45.87 44.89 44.65 45.40 45.40 45.72 47.47 49.45 49.61
50.51 50.89 51.18 51.40 51.79 52.59 52.89 53.48 53.92 52.81 52.99 53.65 52.15 39.32 46.36 46.37 47.38 45.82 44.41 44.96 47.64 47.24 47.45 48.68 50.83 48.76 51.06 47.30 45.62 40.84 43.78 41.16 34.67 31.14 33.61 39.40 42.84 43.82 44.75 44.81 43.79 43.35 45.47 45.82 45.87 45.98 44.61 43.72 43.57 44.32 45.40 46.56 46.38 46.11
50.62 50.89 51.12 52.58 52.88 53.08 53.05 53.27 53.37 54.76 54.70 53.23 51.77 40.17 46.49 49.51 48.99 48.68 49.14 48.22 48.75 49.58 49.08 49.01 50.17 49.49 46.34 44.52 44.39 42.04 38.42 33.89 36.09 34.31 38.41 42.81 44.69 44.73 44.62 43.67 44.37 43.31 44.87 44.71 46.07 44.94 46.14 44.73 43.33 42.84 43.96 45.63 45.92 45.52
50.66 50.98 55.96 53.01 52.74 52.43 52.39 54.10 53.68 57.46 58.75 55.20 54.31 49.04 50.35 47.90 47.03 47.88 47.88 46.77 49.90 49.70 50.01 50.37 46.87 43.74 41.77 42.26 39.10 36.81 35.18 33.66 38.03 42.44 44.53 45.58 44.60 44.94 45.59 43.34 44.31 45.26 45.85 45.98 45.75 45.88 45.64 46.12 44.95 43.97 43.99 44.11 44.87 45.02
50.16 58.37 52.58 52.38 51.73 52.28 53.06 59.27 61.38 57.04 54.12 53.59 50.20 52.61 51.35 49.44 47.86 48.77 49.20 48.22 51.22 47.68 44.59 45.35 40.32 39.99 44.85 38.54 37.45 41.26 37.28 38.65 40.67 42.77 45.82 46.82 45.88 46.04 45.87 44.27 44.68 45.62 46.39 45.49 46.39 46.61 46.11 45.70 47.13 45.17 43.15 43.69 44.14 44.78
54.75 59.67 54.05 51.98 51.80 56.27 63.80 59.77 57.81 54.59 49.72 51.99 50.02 52.33 53.59 52.42 50.70 50.71 51.39 51.72 49.29 46.58 46.31 43.11 45.10 39.15 36.77 34.32 35.40 39.79 41.41 42.70 43.37 44.13 46.92 47.66 47.55 47.44 45.97 44.69 45.70 46.57 46.79 45.53 45.20 46.71 46.53 44.77 43.73 43.34 43.65 44.87 44.58 44.40
52.02 52.08 51.32 51.04 51.77 52.50 58.23 58.33 59.20 51.60 52.66 53.93 54.71 54.23 53.76 52.68 54.78 54.90 52.35 53.44 53.45 51.99 48.21 45.68 41.16 38.26 38.50 41.19 40.78 41.84 42.35 42.06 42.13 43.88 46.14 46.00 46.66 46.29 46.54 46.32 45.44 45.87 46.45 44.33 42.88 42.94 44.43 45.49 43.69 43.38 43.41 42.62 41.33 42.68
50.28 51.00 51.46 52.14 52.83 58.14 57.12 57.37 61.94 55.55 51.82 53.91 54.73 53.57 53.99 53.38 55.14 53.02 52.79 51.07 50.99 48.70 45.32 42.68 42.16 43.45 43.51 45.57 46.60 45.41 44.82 45.10 44.13 42.22 42.91 43.55 44.19 44.67 45.99 46.03 44.32 45.77 44.06 44.87 42.71 42.53 42.11 42.00 43.60 44.01 42.16 41.26 41.37 40.81
56.34 59.40 55.35 55.49 60.24 57.22 58.07 56.43 55.06 55.49 54.83 54.34 55.25 55.28 53.67 54.67 53.33 52.65 51.52 52.58 48.95 46.58 45.00 46.97 47.01 48.45 50.37 49.40 49.58 48.41 48.20 46.50 44.50 43.97 43.21 41.56 43.48 44.94 44.63 44.77 44.92 44.51 43.46 43.07 42.30 41.87 42.02 40.99 41.86 42.84 43.09 41.06 41.72 41.07
60.80 56.43 61.10 62.14 59.15 59.56 57.34 59.78 55.90 59.37 55.61 54.93 54.25 54.55 52.10 50.64 50.75 51.49 53.67 50.05 47.55 48.78 50.23 49.74 49.67 50.09 49.75 49.39 49.61 48.76 48.70 48.20 47.80 46.65 43.88 43.88 42.01 42.88 43.19 43.58 43.24 42.52 42.91 42.96 42.98 42.46 41.73 42.18 42.16 43.38 42.56 42.74 42.06 42.28
57.10 58.12 60.28 60.38 55.29 48.72 47.90 60.41 55.06 55.52 51.41 51.74 54.60 51.45 50.55 50.43 52.83 54.86 49.90 50.59 50.71 53.22 52.57 53.21 53.21 54.03 51.76 52.04 51.26 49.62 50.16 49.16 46.01 44.85 44.45 43.50 43.60 44.02 43.52 43.66 43.66 42.17 41.45 42.54 44.11 43.23 42.55 41.78 41.85 41.88 42.33 43.00 43.32 42.37
54.08 58.35 55.98 54.78 53.49 46.39 56.91 54.35 55.58 53.61 53.96 51.24 49.19 47.62 50.14 51.50 53.65 49.61 47.00 46.52 49.87 52.31 52.40 54.34 54.05 51.95 51.54 51.57 47.61 48.26 47.85 46.04 44.37 44.30 43.77 42.83 41.88 42.52 43.51 43.67 43.55 43.15 42.88 43.50 43.20 43.31 43.07 42.67 41.83 41.53 41.70 42.58 42.90 41.58
48.99 48.48 50.21 39.15 53.61 52.50 50.32 51.22 51.38 50.69 48.85 50.80 48.90 48.82 50.44 50.03 44.72 43.58 42.03 47.13 49.28 50.38 51.61 52.84 51.40 50.26 47.13 46.33 44.90 45.23 46.80 44.66 43.18 42.88 43.56 44.12 43.07 42.30 42.08 42.84 42.55 42.20 42.90 42.34 41.80 42.16 42.33 42.69 42.90 42.29 41.59 41.98 41.84 41.78
41.13 52.70 46.35 52.43 51.50 50.75 50.77 48.44 49.43 46.25 45.58 44.39 47.43 50.33 50.94 46.08 42.77 42.86 45.87 49.06 51.14 51.95 50.84 50.58 49.33 47.75 45.87 46.37 45.20 44.96 45.46 46.44 46.19 43.71 44.53 44.57 43.20 41.49 40.91 39.85 38.96 39.77 43.31 42.94 41.84 41.52 41.48 42.16 42.30 42.04 41.83 41.94 39.75 41.70
40.95 50.39 55.17 58.16 54.06 48.69 47.68 48.93 49.98 49.54 46.69 44.64 45.80 49.48 47.49 41.43 40.13 45.26 49.58 51.77 51.53 52.63 54.26 53.30 51.65 48.79 46.03 46.04 46.86 47.58 48.43 48.03 46.99 46.06 46.20 45.22 45.02 44.40 42.72 40.40 38.85 40.20 43.03 42.49 42.01 41.75 40.57 40.80 41.25 41.51 41.40 41.62 41.91 41.88
53.91 55.80 51.71 54.15 49.30 50.38 46.47 46.71 46.31 47.32 50.20 50.19 49.06 46.98 45.12 41.61 41.75 51.28 53.46 55.87 55.15 54.16 52.97 52.62 52.90 51.65 48.83 49.37 47.85 47.48 47.45 47.08 47.05 46.18 45.96 44.98 44.75 44.69 44.49 44.05 43.11 40.07 42.75 41.51 41.81 41.70 40.96 40.95 41.09 41.60 41.75 41.07 41.27 42.62
53.53 56.06 54.81 52.76 48.34 47.62 47.97 46.74 48.91 52.23 53.97 52.46 49.63 48.91 48.00 49.87 52.11 54.17 56.02 55.37 55.31 54.25 51.13 48.54 49.06 48.41 47.91 49.01 47.89 46.94 46.00 44.89 42.94 40.39 39.25 38.88 39.92 41.11 43.64 43.43 43.23 43.26 43.48 43.38 39.41 40.50 41.75 40.17 40.58 40.77 41.78 42.05 42.19 42.82
54.97 57.68 53.78 53.90 51.71 49.77 52.05 52.91 53.15 55.73 56.47 54.91 54.34 53.10 52.61 52.77 54.08 56.66 54.72 53.32 51.37 49.87 49.36 48.90 47.59 46.41 44.93 44.78 44.28 43.99 44.94 44.22 42.78 40.55 38.43 38.17 39.40 42.25 42.83 42.51 42.16 42.51 42.62 42.58 42.42 42.54 41.30 41.93 41.77 42.57 41.41 41.24 40.45 40.94
57.23 56.04 53.72 53.79 52.92 55.38 56.43 57.05 56.95 54.95 51.77 50.71 53.23 51.80 50.65 52.56 54.21 54.28 53.21 53.07 53.02 50.35 48.68 46.70 45.81 45.82 44.99 43.98 43.38 42.16 40.81 42.60 42.54 41.65 41.14 41.54 42.34 42.32 42.39 42.08 42.18 42.28 42.30 42.23 41.83 41.74 41.12 40.78 40.78 40.76 40.54 40.47 40.61 40.33
55.73 54.56 53.95 52.34 52.99 56.56 57.28 56.33 55.58 50.91 51.90 51.33 50.08 52.03 51.94 52.50 49.36 50.73 51.84 51.63 48.85 46.89 45.23 46.18 45.08 44.12 46.16 45.93 44.60 43.29 40.58 41.25 40.78 40.53 40.45 40.83 41.13 42.17 41.86 41.86 41.88 41.89 41.72 41.53 41.33 41.17 41.09 40.69 40.50 40.26 39.95 40.16 40.05 40.01
56.23 55.73 55.45 53.20 53.65 53.65 56.38 55.98 54.95 50.62 51.24 50.37 50.60 51.25 51.59 50.07 46.56 49.70 52.90 51.62 49.10 47.38 46.66 46.74 46.78 47.14 48.43 46.68 43.64 42.24 40.87 40.64 38.09 36.64 37.37 36.63 36.21 37.74 40.35 40.60 41.17 41.15 40.95 40.80 41.08 40.74 40.24 40.05 39.77 39.90 39.77 39.62 39.27 39.14

GFSWCAN_sfc_wetblb_060.txt.gz
Wetbulb
52.71 52.80 52.71 52.71 52.87 52.81 52.34 52.15 52.08 52.29 52.68 52.68 53.08 53.41 53.70 53.96 54.07 52.00 49.67 49.43 44.92 39.68 40.83 42.81 43.07 40.64 40.77 40.12 36.28 37.09 33.55 36.46 37.26 32.66 32.93 32.99 32.54 34.12 33.86 35.37 34.11 33.83 34.47 32.84 33.40 32.61 33.68 43.60 44.16 40.02 42.67 46.19 46.73 48.03
52.56 52.57 52.46 52.65 52.48 52.07 51.56 52.36 52.32 52.31 52.56 52.89 53.28 53.74 54.04 54.13 54.02 53.48 48.31 50.75 49.72 43.23 42.57 45.51 45.78 46.61 45.76 44.07 40.96 40.53 37.49 35.94 36.50 32.38 32.72 34.16 32.68 35.13 34.16 30.13 39.03 32.78 35.83 33.86 34.00 34.97 40.38 41.97 44.19 47.87 47.44 44.86 45.96 46.12
52.21 52.06 52.30 52.17 52.30 51.76 52.22 52.19 51.81 52.17 52.71 53.16 53.70 54.09 54.13 54.00 53.96 53.09 49.36 48.80 46.94 42.97 42.58 42.87 44.55 48.04 49.59 47.91 48.65 40.11 40.54 40.91 39.48 38.84 34.62 33.15 31.71 34.13 29.26 32.59 34.97 37.26 39.94 34.73 34.62 37.80 38.34 40.38 43.41 47.44 45.38 44.44 46.00 46.00
51.91 52.08 52.13 51.97 52.00 51.82 51.85 51.81 52.25 52.61 53.07 53.64 53.82 54.06 53.88 53.72 54.17 51.65 48.40 48.59 46.69 42.99 36.15 41.45 49.29 46.63 49.65 48.75 48.82 48.13 45.60 44.32 41.33 38.54 32.62 31.02 29.70 35.10 32.13 34.19 34.63 36.95 38.14 35.94 34.83 36.50 39.18 41.52 42.83 43.06 43.65 45.37 45.56 46.64
51.61 51.96 51.62 51.75 51.84 51.49 51.58 51.80 52.32 52.90 53.56 53.74 53.82 53.70 53.68 53.90 53.66 52.44 49.21 47.26 46.33 43.31 37.18 39.23 43.27 45.18 45.51 45.46 47.19 46.88 43.54 41.88 39.01 35.83 35.75 33.13 36.78 35.59 34.70 34.58 34.91 37.87 36.40 34.83 33.67 38.92 39.36 39.88 42.89 44.55 43.46 44.04 45.10 45.38
51.39 51.52 51.25 51.63 51.51 51.50 51.45 51.84 52.39 53.09 53.48 53.56 53.76 53.43 53.55 53.80 53.62 51.54 45.32 49.29 47.74 45.37 38.54 34.21 42.38 45.70 46.35 45.03 44.21 43.25 45.00 41.77 41.58 38.55 36.82 38.37 40.02 36.09 32.98 31.67 37.25 40.08 41.68 42.61 39.62 42.72 42.93 45.32 45.39 45.57 44.36 45.17 46.42 46.45
51.28 51.06 51.37 51.73 51.41 51.09 51.35 51.54 52.38 53.24 53.51 53.18 53.31 53.35 53.10 52.60 48.23 44.21 43.22 46.37 49.25 46.11 38.65 35.18 37.44 42.94 46.39 44.78 41.58 41.25 42.99 40.90 39.68 38.50 36.76 36.15 37.10 37.88 33.65 31.09 36.40 40.18 42.52 42.63 43.42 43.91 43.48 47.31 46.32 48.54 47.53 47.91 48.83 48.58
50.92 51.07 51.18 51.64 51.22 51.14 51.22 51.75 52.63 52.97 53.35 52.90 53.02 52.02 51.18 50.83 48.63 45.62 46.44 50.11 49.23 42.20 40.22 38.40 39.73 41.02 45.08 41.78 39.68 40.74 37.63 38.95 39.40 38.55 38.91 36.69 37.38 35.09 31.45 37.69 38.90 41.54 41.41 41.82 43.11 45.47 45.39 46.30 46.32 47.04 49.18 49.02 46.94 46.28
50.85 51.09 51.38 51.64 51.37 51.46 51.54 51.88 53.01 53.11 53.01 52.77 53.10 52.96 50.18 47.14 45.91 45.35 51.83 51.73 48.91 45.95 39.75 39.86 35.84 38.67 45.11 43.19 41.85 41.06 39.34 36.37 40.59 36.37 37.20 36.58 32.95 32.24 37.91 39.96 40.69 42.34 41.77 41.74 43.58 44.03 44.32 43.73 44.35 45.41 46.63 47.02 45.36 45.64
50.84 50.90 51.19 51.49 51.76 51.47 51.83 52.68 52.99 52.58 52.34 52.82 49.79 48.17 45.89 46.85 53.31 50.80 44.98 44.52 44.70 42.72 42.83 36.95 41.14 40.34 43.03 42.63 40.64 39.62 39.59 38.02 35.29 38.52 39.47 34.92 32.78 40.67 42.82 43.59 43.02 44.28 44.20 44.56 41.47 40.58 42.01 42.07 42.99 44.46 46.00 48.41 45.60 45.61
50.78 50.81 51.18 51.41 51.72 51.95 52.25 52.57 52.74 52.16 51.84 47.75 47.21 47.23 46.65 53.06 46.51 46.82 43.35 39.95 41.23 37.11 41.20 40.56 40.64 39.57 46.17 41.78 41.14 42.12 38.73 39.09 33.28 34.51 36.45 32.49 32.72 38.40 43.03 43.35 43.22 45.19 45.75 45.23 45.08 44.00 43.95 43.74 43.11 44.27 45.30 49.03 48.19 48.40
50.52 50.61 50.92 51.30 51.63 51.91 52.05 52.29 52.51 49.36 49.61 49.67 48.17 50.54 47.55 45.13 44.17 41.09 39.65 41.79 40.10 38.39 43.52 41.65 42.47 43.83 45.58 46.58 42.04 43.65 41.54 40.60 35.28 39.07 33.80 31.74 37.78 39.67 41.75 42.72 43.04 43.51 45.70 44.48 45.98 43.78 43.61 43.87 43.89 44.58 45.02 45.58 47.71 49.06
50.24 50.49 50.94 50.58 50.84 51.77 52.07 52.45 52.66 51.80 50.87 50.99 48.89 47.03 46.08 43.18 35.19 35.51 32.62 35.25 35.65 39.53 40.21 39.99 42.63 47.35 44.55 43.82 41.19 41.13 38.87 36.69 40.09 33.76 31.28 33.41 39.86 41.52 41.42 41.69 42.13 42.50 45.23 45.57 45.52 44.61 44.14 43.74 44.31 44.09 44.36 45.21 45.17 46.23
50.12 50.43 50.73 50.83 51.32 52.02 52.39 53.12 53.34 52.33 48.26 48.54 48.81 35.05 40.48 39.89 39.42 37.99 37.32 37.42 40.82 40.57 42.79 41.58 43.92 44.15 43.85 41.58 42.16 39.18 39.54 36.94 32.12 27.51 30.34 34.01 38.68 41.75 41.44 41.95 39.61 40.40 42.93 44.66 44.93 45.33 44.02 43.22 42.95 43.87 44.44 44.92 43.96 43.56
50.03 50.34 50.87 51.75 52.62 52.82 52.72 52.82 53.17 50.31 50.06 48.56 45.37 40.27 43.46 43.33 41.28 41.93 42.06 41.00 41.97 42.55 41.89 41.94 43.70 41.22 38.91 38.53 37.83 35.39 33.59 26.96 33.46 33.19 33.95 38.49 40.54 39.76 40.18 39.33 38.52 40.16 41.11 42.86 43.70 45.06 44.83 43.74 42.87 42.87 43.94 44.60 44.37 43.36
50.15 50.75 53.20 52.79 52.49 52.36 51.66 52.60 50.80 51.75 52.95 50.26 48.13 42.85 43.55 40.76 40.33 40.85 40.69 39.90 42.10 41.74 41.47 40.68 38.58 37.17 35.27 35.12 34.23 31.76 30.76 25.02 30.86 35.27 38.19 40.65 37.86 38.26 40.11 38.54 38.98 40.85 41.76 40.82 42.49 43.40 45.12 44.77 43.15 42.80 43.42 43.37 43.87 43.56
49.86 51.39 52.71 51.96 51.63 51.92 52.60 53.51 55.77 54.27 49.61 49.08 43.51 44.68 44.13 42.73 40.99 41.51 41.36 41.27 42.66 40.04 36.78 37.08 34.15 32.92 36.76 32.47 31.12 32.29 29.02 32.15 34.05 35.31 38.93 40.66 38.38 39.20 40.39 38.03 39.43 41.34 41.58 40.04 41.48 42.07 43.00 45.23 44.79 43.32 41.53 42.67 43.31 43.92
48.87 53.29 52.08 51.22 50.71 52.06 56.29 53.19 53.49 50.22 46.15 45.57 42.69 44.59 46.05 43.99 42.46 42.54 43.41 43.31 41.14 38.80 38.57 36.14 37.29 33.29 31.29 31.01 29.81 33.15 34.45 35.18 35.82 36.62 39.12 39.66 40.46 40.28 41.37 38.03 39.19 40.17 39.75 39.24 37.94 39.17 39.79 39.38 39.04 40.58 42.31 42.85 43.37 43.54
47.75 48.58 49.97 50.48 49.78 48.32 52.97 54.18 51.84 47.81 49.11 46.75 47.79 45.85 45.73 45.76 45.99 45.28 44.06 44.74 43.17 42.04 40.22 37.53 35.05 32.22 31.96 33.86 34.31 35.05 35.10 35.28 35.64 37.21 37.86 37.40 36.46 37.27 38.89 39.78 38.69 39.66 38.16 36.76 36.07 35.77 36.31 36.91 37.41 37.27 38.48 39.48 39.14 40.35
50.31 51.24 51.20 51.44 51.35 52.48 53.84 52.77 53.19 49.28 48.54 47.45 45.98 44.75 44.71 44.53 46.84 45.71 43.67 42.96 42.02 40.02 37.93 36.34 36.25 36.01 36.18 37.16 38.05 37.71 37.44 37.70 36.86 35.87 36.50 36.07 36.93 37.78 37.99 37.69 37.09 36.32 38.42 38.24 36.04 38.28 36.17 37.23 38.02 37.58 37.57 38.47 37.60 37.39
52.74 56.27 53.74 52.07 51.70 51.78 53.04 49.36 48.54 48.83 48.13 46.00 47.06 46.69 45.91 47.01 45.71 44.76 42.88 43.44 40.70 39.16 37.88 39.47 39.77 41.13 41.04 41.11 41.03 40.47 42.68 39.10 37.53 37.78 37.11 34.31 36.34 36.96 37.87 38.12 37.82 36.90 36.05 36.08 35.55 35.71 36.54 34.50 35.47 37.48 36.38 36.53 37.48 38.18
52.80 56.10 54.62 54.90 54.95 56.98 51.77 52.17 47.65 49.74 47.32 47.92 46.89 47.81 45.99 45.27 45.59 45.58 46.49 42.70 41.56 42.17 43.06 43.45 41.87 42.06 42.15 41.93 43.92 44.92 45.27 42.34 40.81 39.09 39.92 37.83 35.57 35.64 35.91 36.73 36.71 36.45 36.76 35.59 36.18 36.40 35.29 35.00 36.32 36.95 38.16 37.64 38.70 38.10
54.00 54.39 55.32 56.79 53.88 45.04 44.39 50.81 48.15 49.49 46.92 46.33 47.81 46.46 45.81 47.10 48.18 50.13 44.50 45.79 46.00 48.18 46.68 44.98 44.54 44.52 44.12 45.39 45.27 45.59 43.11 42.16 38.01 36.81 36.59 35.47 35.59 36.07 37.49 37.25 36.01 36.46 36.13 36.11 36.23 36.37 36.19 37.75 36.97 37.59 39.27 38.86 39.81 37.06
54.66 54.27 52.67 51.90 49.01 42.44 50.57 49.03 52.70 49.99 48.26 46.49 45.46 44.67 45.16 45.60 47.01 40.75 38.92 44.27 46.11 46.77 45.60 47.67 46.77 43.83 45.00 42.63 40.71 38.75 38.56 38.69 37.82 35.60 35.55 35.23 34.32 34.47 36.25 35.93 35.29 35.41 36.66 37.08 37.77 37.42 37.54 38.48 37.78 37.31 38.06 39.37 38.09 37.04
46.51 45.67 46.09 38.77 48.18 48.35 48.47 49.02 48.37 46.33 42.70 43.95 42.86 43.47 45.05 46.22 41.60 38.88 38.28 42.27 45.59 46.19 47.18 45.70 44.67 41.84 39.64 37.74 37.15 36.88 37.95 37.14 36.17 34.48 35.45 35.67 34.07 34.30 34.87 34.47 34.31 35.61 36.46 35.93 35.66 36.79 37.43 38.43 39.41 37.98 37.46 37.49 37.35 37.42
40.16 48.70 44.12 48.77 48.30 46.85 46.03 44.72 45.10 44.16 44.55 43.69 43.44 46.04 45.15 42.87 41.39 40.05 41.60 44.21 45.04 44.48 44.63 43.75 41.35 39.19 37.72 38.95 38.12 36.56 37.29 37.44 37.89 35.73 35.68 36.39 36.13 35.89 33.82 32.78 33.41 34.89 36.26 35.72 36.53 36.55 37.64 38.35 39.40 39.47 38.42 38.37 38.30 38.03
40.36 45.04 49.57 51.41 49.16 48.54 46.53 46.91 47.40 45.54 45.11 43.67 43.40 44.48 43.61 38.87 38.99 42.28 45.42 46.73 46.25 47.06 46.63 44.93 42.49 39.56 38.90 37.18 37.64 38.63 39.17 39.08 38.73 37.64 37.25 39.18 39.55 37.37 36.06 35.25 34.18 34.39 36.02 38.69 38.36 39.09 38.04 37.57 37.82 38.40 38.06 37.71 37.54 38.49
50.78 49.94 48.15 48.32 48.74 48.55 45.69 45.05 45.14 44.15 46.16 48.29 48.01 45.07 43.06 42.52 41.28 46.39 50.21 50.09 48.27 48.58 44.21 44.34 43.67 42.03 40.36 39.34 39.00 39.12 38.78 39.12 40.07 39.48 40.32 40.27 37.56 37.27 37.51 37.22 37.34 38.89 37.47 38.26 39.08 39.30 38.14 37.76 37.83 37.97 38.66 37.02 37.73 37.46
50.19 50.78 50.94 47.84 47.64 46.57 46.44 44.93 45.15 48.10 51.33 49.56 44.91 46.87 45.57 47.10 49.16 48.89 50.79 47.36 48.98 48.56 44.09 39.87 39.22 42.76 41.82 41.43 40.88 39.90 39.10 37.19 35.33 33.67 32.38 31.42 32.27 34.14 36.56 37.37 36.93 37.33 37.58 38.91 40.69 39.79 39.87 38.42 38.41 37.60 38.43 38.05 38.23 39.24
50.08 52.81 49.60 50.61 47.58 47.64 48.12 48.16 48.14 50.01 49.87 49.03 51.08 48.36 48.48 48.85 50.57 49.76 45.68 44.63 42.63 41.32 39.90 39.10 38.78 40.87 38.59 37.63 36.69 36.56 37.69 36.64 34.32 32.43 30.34 30.42 32.70 34.98 35.83 35.88 35.96 36.02 36.73 38.66 39.59 39.50 39.93 40.78 39.97 39.23 38.32 36.85 36.68 36.53
53.97 53.39 50.53 51.16 49.13 51.06 52.39 52.28 51.73 51.56 51.09 49.84 50.85 47.46 47.07 47.58 48.92 45.77 44.81 43.79 43.70 42.38 40.76 38.54 38.16 38.40 38.49 37.03 35.48 33.73 32.05 33.98 34.65 35.23 35.57 34.60 35.02 35.35 35.29 35.36 35.29 35.93 36.56 36.65 37.84 38.43 38.07 38.19 38.09 37.33 37.71 36.48 37.00 36.73
50.82 50.27 49.05 47.12 49.73 52.37 52.79 49.98 49.16 48.66 49.23 48.32 47.37 49.31 48.86 48.20 43.42 43.07 43.80 43.14 41.98 40.44 40.53 39.12 37.90 36.45 38.02 38.08 37.75 36.79 36.12 33.64 33.59 34.19 34.87 34.47 34.31 34.81 34.78 34.76 35.08 36.24 36.87 36.67 36.48 37.71 38.51 38.19 38.27 37.54 35.71 36.44 35.60 35.87
51.90 52.13 51.67 50.64 49.39 49.86 51.29 50.89 48.49 47.52 48.05 47.42 47.67 48.90 49.74 47.43 41.97 42.66 44.14 43.25 42.73 40.71 39.09 39.25 40.16 40.95 39.09 38.62 37.44 36.30 36.03 34.79 35.64 36.45 36.64 36.40 36.15 35.23 33.62 33.51 34.99 35.95 36.10 36.06 35.95 35.37 35.33 35.18 34.57 34.87 34.31 34.17 34.07 34.68

GFSWCAN_sfc_wetblb_063.txt.gz
Wetbulb
52.65 52.63 52.89 52.82 52.92 52.93 52.05 52.03 52.19 52.32 52.68 53.11 53.39 53.74 53.93 54.14 53.81 51.51 48.83 49.04 45.56 40.37 41.34 42.56 42.56 40.75 40.88 40.59 36.08 38.54 34.11 34.95 34.43 30.97 31.71 30.95 31.28 33.07 32.20 33.80 32.95 32.50 31.97 32.41 33.04 33.06 34.11 41.08 41.22 39.65 41.57 44.79 44.37 43.89
52.34 52.32 52.50 52.63 52.75 52.27 52.09 51.80 51.99 52.51 52.76 53.13 53.60 54.13 54.13 53.85 53.81 53.21 48.49 50.40 49.44 43.80 42.88 45.42 46.42 46.85 45.85 45.36 41.34 41.40 38.01 33.32 38.50 32.38 32.48 33.18 32.19 33.87 32.35 29.89 37.37 31.81 34.47 33.42 33.01 33.07 40.05 41.59 40.96 43.69 45.50 42.57 42.84 43.34
51.99 52.19 52.14 52.40 52.38 51.83 51.74 51.89 52.20 52.72 53.26 53.46 53.93 54.30 54.18 53.95 54.19 52.39 49.01 48.63 47.18 42.95 38.92 38.89 44.20 48.47 48.88 48.18 48.62 40.09 41.41 40.82 37.14 36.68 35.94 33.74 33.28 34.85 30.44 31.78 33.97 36.54 38.76 34.38 34.36 37.84 38.55 40.43 43.54 44.40 45.04 43.64 44.93 45.82
51.85 51.90 52.08 52.26 52.05 51.50 51.64 51.83 52.39 52.74 53.57 53.93 53.99 53.87 53.72 54.15 54.20 50.62 45.84 46.97 46.20 40.95 33.95 37.61 48.38 46.12 47.60 47.57 48.83 47.60 45.42 44.92 39.27 36.08 33.02 33.61 32.71 36.32 34.35 35.85 34.41 36.84 37.52 35.35 35.17 38.20 39.11 42.01 42.77 43.83 44.85 46.32 46.46 47.54
51.30 51.74 51.85 51.85 51.85 51.34 51.60 51.71 52.25 52.80 53.38 53.61 53.65 53.52 53.68 54.01 53.14 50.93 46.70 45.31 44.27 41.93 36.11 36.22 40.88 43.45 43.51 44.50 45.52 44.98 41.05 40.15 39.05 35.79 34.55 33.60 38.08 36.15 35.42 36.41 35.02 37.68 36.59 34.88 33.63 39.31 39.69 40.06 42.87 44.87 44.76 46.22 46.71 46.46
51.20 51.40 51.61 51.56 51.30 51.13 51.27 51.37 52.29 53.03 52.94 53.59 53.39 53.66 53.97 53.77 53.25 50.79 43.40 45.66 46.21 44.59 37.38 36.46 41.83 41.20 42.45 42.99 41.74 41.51 43.68 41.58 40.22 38.02 36.78 37.40 37.43 37.26 33.45 32.86 37.41 39.68 41.67 41.56 39.01 42.52 42.97 44.07 45.44 47.54 47.78 47.88 48.11 47.84
51.15 51.42 51.51 51.73 51.26 51.18 51.30 51.49 52.24 52.68 53.09 52.95 53.15 52.96 53.17 52.61 48.09 45.21 41.79 45.37 48.19 44.47 37.29 38.34 40.36 45.13 44.52 41.49 38.70 38.42 39.51 38.64 38.68 38.48 36.92 36.74 37.29 37.69 34.22 31.61 37.89 40.85 42.23 43.12 44.27 43.76 42.32 44.55 43.40 46.44 47.24 48.70 50.18 50.10
50.99 51.15 51.23 51.74 51.33 51.22 51.28 51.71 52.12 52.41 53.00 52.78 52.16 51.49 51.40 51.09 48.57 44.93 45.93 49.68 47.45 40.98 39.15 33.31 38.20 42.53 46.45 40.72 38.25 37.95 35.64 36.20 38.50 38.51 39.35 37.01 37.44 35.81 32.77 37.98 40.00 42.27 42.18 43.20 42.83 43.81 43.48 44.44 44.67 45.12 46.89 47.50 47.79 48.00
50.86 50.98 51.20 51.55 51.52 51.15 51.13 51.56 52.55 52.82 52.70 52.49 52.45 52.56 48.76 45.82 43.62 45.00 51.17 51.19 47.47 44.03 39.94 39.12 36.55 34.28 43.99 43.29 41.30 39.04 37.17 36.29 38.59 36.37 37.90 36.25 34.04 32.59 36.89 39.14 39.85 42.11 41.65 41.89 42.92 43.17 43.29 42.70 42.98 44.24 45.07 45.89 47.65 47.15
50.85 50.94 51.01 51.22 51.60 51.21 50.99 52.05 52.82 52.45 52.11 52.35 48.87 47.45 45.11 45.58 52.28 49.87 44.08 43.91 44.62 42.82 41.39 36.94 42.02 39.31 42.46 42.27 40.91 40.04 39.99 37.67 34.37 36.80 40.05 34.92 32.56 37.29 38.90 41.63 42.31 42.60 44.27 43.76 40.55 39.61 41.18 41.20 41.97 43.00 43.45 44.91 47.43 46.19
50.77 50.71 50.81 51.10 51.39 50.87 51.06 52.20 52.55 51.91 50.68 46.57 45.45 48.26 45.67 51.68 45.45 46.31 43.32 41.22 41.95 39.12 40.02 39.53 39.97 38.10 43.29 41.12 40.89 41.72 38.25 38.74 34.40 35.98 35.93 33.37 32.67 35.62 39.97 40.76 42.41 42.00 44.13 44.09 43.51 43.26 43.22 43.02 42.46 42.81 43.02 43.97 45.46 47.68
50.41 50.44 50.48 50.89 50.56 50.25 50.69 52.04 52.16 48.46 47.22 48.37 47.38 48.30 45.47 44.50 45.00 40.05 37.51 38.93 39.02 37.59 40.52 39.92 40.20 41.42 45.69 45.57 42.61 42.64 40.40 39.92 32.60 39.04 33.80 25.45 36.92 39.69 39.93 41.03 41.88 40.63 43.07 43.58 43.41 42.61 43.14 43.31 43.50 43.57 43.31 43.04 43.80 45.56
50.12 50.11 50.42 50.81 50.61 51.08 51.74 51.96 52.09 51.14 49.92 48.84 47.27 44.92 45.06 41.85 32.61 33.37 29.59 33.70 34.02 37.49 38.58 38.55 38.43 44.29 43.35 42.21 41.47 40.15 37.36 36.34 36.65 31.76 30.55 33.12 37.85 39.47 38.95 39.92 40.64 40.07 42.42 43.75 43.83 43.41 42.79 42.87 43.79 43.52 43.15 43.58 43.42 43.37
49.88 50.11 50.29 50.66 51.14 52.11 52.21 52.01 52.47 51.99 46.82 46.81 47.47 37.85 39.64 36.74 36.95 37.17 36.18 36.05 39.01 38.53 38.85 37.62 40.28 41.60 41.28 42.86 42.23 37.24 37.34 34.79 28.75 20.22 26.61 33.94 39.82 38.34 38.81 39.73 37.06 37.27 40.23 42.13 43.32 44.06 42.61 41.53 41.24 42.54 43.11 43.58 42.97 42.27
49.92 50.14 50.12 50.42 52.06 52.43 52.30 52.13 52.55 49.30 48.57 46.77 45.66 39.48 38.80 40.67 39.91 40.51 40.29 38.38 39.80 39.47 37.56 40.97 40.53 38.39 36.28 36.35 34.55 33.45 31.78 24.70 30.42 24.71 32.12 35.73 37.84 38.33 37.13 38.14 36.29 36.86 39.35 39.61 41.70 42.74 43.12 42.80 41.83 41.19 42.58 43.22 43.12 42.88
50.14 50.11 51.95 52.00 51.95 51.90 51.58 52.07 50.60 50.12 50.44 49.00 47.42 40.69 41.06 38.58 38.78 39.35 39.16 38.11 39.09 38.83 37.61 37.67 35.50 35.14 33.81 33.16 32.14 29.89 29.13 22.64 28.07 32.23 35.83 38.50 38.49 35.59 36.34 38.02 36.50 37.88 38.81 37.92 40.09 41.46 42.56 42.61 41.34 41.48 42.91 42.84 43.50 43.13
49.57 48.96 52.24 50.79 50.91 51.09 51.89 51.09 52.28 51.93 50.59 45.92 42.40 42.57 41.44 39.74 39.46 39.87 39.82 39.51 39.00 37.81 34.63 34.87 32.46 30.79 33.76 30.77 29.05 29.43 27.50 30.39 32.55 33.86 35.05 37.44 37.02 37.93 37.91 38.06 36.96 38.46 37.49 36.11 37.00 38.47 38.85 42.49 43.41 42.25 40.19 41.69 43.25 43.75
45.65 49.27 50.60 50.15 50.05 49.72 52.31 50.54 51.84 50.58 45.62 46.59 41.90 43.00 43.27 42.75 40.64 40.94 41.36 41.14 38.76 36.29 36.29 34.55 35.32 31.81 29.45 29.53 29.19 31.92 33.07 33.95 34.15 34.54 35.61 36.04 36.81 36.13 36.63 36.13 36.97 37.34 36.35 35.52 34.60 34.77 34.28 35.61 35.51 38.47 40.87 41.22 41.77 42.50
47.51 48.31 49.96 50.33 49.44 47.24 50.74 52.82 51.29 45.62 46.65 46.55 46.71 45.25 43.93 44.30 43.65 42.40 42.17 41.74 40.03 39.67 38.90 36.48 34.67 31.68 31.62 33.17 33.48 33.73 33.73 33.47 34.32 35.09 35.22 35.65 33.87 34.13 36.47 36.96 37.10 35.28 34.90 34.52 33.44 33.09 32.87 33.02 33.95 33.68 35.75 36.17 35.29 36.74
49.83 50.77 51.58 51.38 50.51 50.47 52.04 51.47 50.51 46.67 46.35 45.20 44.45 43.68 44.90 45.18 45.10 43.57 43.03 42.18 40.08 38.79 37.98 36.37 36.33 35.68 35.73 36.03 35.85 36.61 35.87 36.00 35.41 35.45 35.84 36.99 34.59 34.67 34.99 35.17 34.05 33.56 36.22 34.26 33.82 36.65 33.89 34.53 34.05 34.23 35.21 36.05 35.66 35.42
50.96 53.74 52.30 50.38 49.45 49.66 50.49 48.81 46.45 47.14 46.45 44.28 44.93 46.52 46.37 49.87 48.35 46.70 44.52 45.45 42.56 39.52 38.52 39.54 39.54 40.34 39.06 37.87 38.19 41.43 40.20 38.33 35.87 36.64 36.34 33.43 34.45 33.65 34.13 35.61 35.26 34.51 33.90 34.11 33.76 33.59 34.17 32.07 32.69 33.66 35.11 35.20 36.22 36.90
50.39 54.03 52.63 52.00 52.59 53.56 50.80 50.46 47.16 48.08 46.82 45.55 46.67 48.30 45.62 45.85 46.63 46.41 46.39 45.25 43.00 42.56 42.34 41.17 42.05 40.30 39.80 40.77 40.72 41.79 42.02 40.13 39.00 35.19 38.35 36.05 33.05 33.23 32.89 32.87 35.47 34.55 33.90 33.10 34.47 33.33 33.19 33.05 34.17 35.15 35.99 35.57 36.29 36.38
52.75 53.11 53.20 54.45 52.28 44.05 44.45 48.88 48.58 48.57 44.88 45.69 46.01 44.36 42.92 43.07 45.03 45.06 40.72 42.71 44.01 44.72 43.66 43.67 44.32 44.17 45.73 43.16 42.62 41.54 41.53 39.24 34.48 33.00 33.13 33.11 33.16 33.02 32.48 33.33 33.37 34.80 34.80 34.76 34.12 34.91 34.32 36.06 36.58 36.11 36.57 36.30 36.85 36.11
53.10 52.53 50.55 50.09 47.68 42.75 48.19 47.17 49.80 46.99 45.29 42.99 42.97 41.14 41.56 42.74 44.65 40.46 38.85 39.55 43.28 43.97 43.83 43.91 46.42 43.38 41.17 40.44 39.66 38.58 36.13 35.25 33.88 33.09 32.78 33.20 33.02 32.25 31.97 32.26 32.72 33.11 33.00 33.41 34.55 36.11 36.96 35.78 36.50 36.40 36.05 36.11 35.77 35.04
44.93 43.77 44.04 37.43 46.45 45.51 46.57 46.13 44.82 43.50 41.64 42.58 42.04 41.89 41.40 44.02 41.93 40.08 38.58 40.05 43.28 42.60 43.98 44.05 41.52 39.77 39.95 37.91 34.92 34.52 34.89 34.55 33.27 32.57 32.93 32.64 32.23 33.08 34.69 33.57 32.67 34.95 35.94 33.93 33.47 35.48 37.49 38.36 36.90 36.66 36.25 35.58 35.63 34.86
40.12 47.96 42.42 46.75 45.90 44.91 44.23 41.98 43.58 43.51 44.47 44.63 43.92 46.21 46.30 43.36 41.71 40.35 41.43 43.18 43.31 42.80 42.98 40.72 38.32 36.99 36.09 35.20 34.69 33.99 34.48 34.54 34.48 33.90 33.47 33.80 37.22 36.39 32.95 31.83 33.68 32.72 34.33 33.82 36.49 36.93 38.70 38.64 39.23 38.54 37.76 37.95 37.18 36.73
40.36 44.04 45.73 48.96 47.02 46.47 44.25 44.68 45.58 44.12 44.61 44.30 45.75 46.24 44.75 39.71 39.06 41.39 44.45 45.05 44.75 45.48 44.85 42.90 38.26 36.79 36.01 34.08 34.52 35.13 35.05 35.51 35.48 35.95 35.55 37.80 36.47 34.76 34.14 33.12 32.69 33.42 34.59 37.16 38.36 37.90 38.47 38.75 37.61 37.76 37.93 37.28 36.02 36.58
49.28 48.08 46.45 46.29 45.80 46.11 43.96 43.26 43.41 42.20 44.67 46.08 43.46 42.96 42.15 40.98 38.91 42.82 45.88 47.63 46.45 44.45 39.50 38.91 38.11 37.55 36.60 34.46 34.15 35.22 34.52 35.28 36.77 36.45 36.18 34.79 34.25 34.60 34.99 35.33 36.05 37.97 37.87 38.35 37.96 37.70 37.35 37.15 37.26 38.14 38.55 36.69 36.35 36.26
48.23 48.82 48.21 46.17 46.31 45.16 44.66 43.40 43.38 45.31 48.21 46.40 42.56 42.88 43.49 44.67 46.05 45.98 47.49 45.07 43.79 39.75 37.94 37.54 36.65 38.37 37.37 36.77 35.97 34.31 32.89 32.69 32.02 30.37 30.07 29.55 31.13 33.09 34.40 35.82 35.40 35.76 36.14 36.94 38.59 38.71 39.45 38.37 37.83 37.77 37.92 37.00 36.87 36.47
47.80 49.88 47.14 47.20 46.08 45.40 46.45 46.48 46.19 47.49 47.13 48.03 47.97 45.60 44.56 45.04 46.84 44.33 39.52 39.67 37.74 35.74 35.19 36.09 34.87 35.68 32.58 32.95 30.51 31.76 31.85 31.73 30.87 30.31 30.52 30.46 31.28 32.34 33.30 34.07 33.87 33.96 34.78 35.43 36.90 35.91 38.59 38.73 37.80 37.80 37.29 36.05 35.22 35.07
49.23 49.12 48.12 48.38 47.30 48.03 48.27 48.97 49.77 49.46 49.09 47.87 47.81 45.28 44.08 44.53 42.46 40.73 38.58 37.76 38.18 39.26 37.54 34.76 33.91 33.79 33.22 31.45 30.30 29.41 28.93 31.33 32.36 33.13 32.47 32.10 31.80 32.29 32.67 32.97 33.12 33.87 34.93 35.87 35.93 35.77 35.66 36.70 35.58 34.78 34.54 34.86 35.50 34.59
48.81 48.49 47.05 45.88 47.61 48.64 49.08 47.63 47.29 46.31 46.26 45.99 45.55 46.95 46.90 45.05 39.83 38.94 39.37 37.86 38.09 35.67 36.96 36.14 34.24 32.62 33.00 32.97 32.66 32.47 33.68 31.12 31.86 32.55 32.86 32.38 32.14 32.52 32.27 32.56 33.59 35.21 35.04 35.24 35.21 34.66 35.07 34.39 33.64 33.54 32.48 32.99 33.27 33.58
48.13 47.79 47.77 48.50 47.00 46.33 48.30 47.60 46.84 46.02 45.90 45.16 45.98 46.93 46.93 44.94 40.16 39.95 40.23 38.97 39.30 38.45 36.30 35.40 35.91 35.72 34.73 34.70 33.65 33.06 34.05 33.23 34.25 35.74 35.79 35.43 35.15 33.64 32.05 32.45 33.94 34.36 33.92 33.23 33.05 32.91 32.76 32.97 32.23 32.49 32.28 32.69 32.90 33.23

GFSWCAN_sfc_wetblb_069.txt.gz
Wetbulb
52.87 52.75 52.59 52.81 52.54 52.06 52.02 52.17 52.25 52.96 53.37 53.82 53.93 54.42 54.30 54.01 53.88 52.63 50.27 51.19 47.40 44.20 44.48 44.25 43.72 41.40 41.45 40.33 36.25 39.99 39.08 39.32 37.62 33.22 32.45 32.39 32.31 33.75 31.78 32.70 31.87 30.89 29.64 29.26 31.08 28.42 27.22 40.37 39.37 35.63 38.63 43.85 44.43 45.71
52.41 52.18 52.36 52.63 52.22 51.77 51.62 52.07 52.07 52.89 53.41 54.07 54.05 54.26 53.85 54.21 54.25 52.63 49.01 51.03 50.89 45.26 45.00 47.70 47.60 48.12 46.85 45.22 42.63 42.16 39.09 39.43 39.64 36.17 35.90 34.80 32.82 34.76 33.39 29.09 35.68 31.80 33.96 33.65 34.29 35.67 40.70 42.05 41.02 42.75 44.43 43.90 45.05 45.78
51.92 51.99 52.14 52.26 52.20 51.61 51.67 51.69 51.98 52.62 53.41 53.93 53.85 53.92 54.15 54.56 54.31 52.63 49.92 50.26 49.20 45.02 45.10 44.92 45.64 48.99 50.22 48.95 50.15 40.49 42.51 43.10 41.54 42.46 38.59 36.91 32.86 34.81 29.92 32.29 33.77 35.55 37.51 34.81 34.93 38.82 39.51 41.49 43.57 44.82 45.16 44.60 46.46 47.82
51.67 52.03 52.12 52.11 51.98 51.67 51.61 51.40 51.84 52.27 52.98 53.45 53.84 54.15 54.33 54.70 53.27 51.56 50.25 50.46 48.02 44.58 41.84 44.18 48.61 47.79 49.08 50.08 49.35 48.62 46.28 47.26 44.25 42.44 39.37 37.65 34.26 37.42 35.20 35.08 33.36 34.96 36.13 34.42 35.21 38.12 39.69 42.18 43.11 44.81 45.90 47.08 48.01 49.74
51.51 51.83 52.06 51.93 51.72 51.32 51.49 51.72 51.86 52.52 53.12 53.64 53.51 53.68 54.25 54.39 52.31 51.35 50.60 50.35 49.29 45.86 42.29 44.55 46.36 47.60 47.23 47.89 46.61 46.29 45.10 44.33 43.20 40.16 38.72 35.89 38.20 36.24 37.91 37.69 34.96 37.83 35.35 33.39 33.87 39.18 40.11 41.07 44.18 45.88 44.68 45.04 47.38 47.86
51.31 51.41 51.55 51.75 51.72 51.41 51.39 51.40 51.90 52.46 52.94 53.33 53.57 53.98 54.19 53.70 52.08 51.98 47.33 49.68 50.14 49.68 44.46 41.44 47.17 46.35 46.52 46.19 45.03 44.71 45.16 43.78 43.68 41.20 38.13 38.26 40.14 37.88 35.08 34.01 39.45 40.62 42.50 41.39 39.45 42.58 42.87 43.61 44.51 45.12 44.64 45.99 47.73 48.29
51.24 51.32 51.50 51.65 51.77 51.21 51.17 51.39 51.99 52.07 52.63 53.00 53.22 53.43 53.37 52.71 53.29 49.35 46.61 49.13 49.31 49.44 44.31 41.60 43.88 48.50 47.23 46.23 45.41 45.62 44.22 42.70 43.22 42.13 39.85 39.38 38.86 38.27 36.62 32.71 39.64 41.28 41.75 41.46 42.70 42.88 40.57 42.23 41.44 43.99 44.46 45.63 48.07 50.75
51.05 51.18 51.35 51.56 51.39 51.06 51.01 50.91 51.49 52.00 52.22 52.94 52.17 51.79 52.33 52.03 50.19 48.82 50.82 49.86 49.12 46.60 44.90 39.95 41.74 44.22 48.00 43.79 41.64 42.31 39.98 41.79 42.56 42.21 43.07 39.38 41.18 39.15 33.97 39.25 41.25 42.40 42.27 41.35 41.46 43.33 42.64 43.66 43.71 43.33 44.22 44.66 45.43 46.19
50.80 51.16 51.26 51.41 51.46 50.82 50.55 50.51 51.06 52.31 52.46 52.80 52.15 51.71 51.73 50.02 48.87 49.55 51.04 51.32 49.24 46.32 41.72 40.46 38.58 40.12 46.96 44.60 42.71 41.03 41.38 38.95 42.76 40.16 40.19 41.28 38.00 33.95 38.87 40.53 40.80 42.20 40.82 40.59 42.35 42.30 42.48 41.60 41.93 42.35 42.61 42.80 42.63 43.85
50.82 50.85 50.89 51.09 51.16 50.47 50.34 50.02 50.96 52.67 52.40 52.36 51.56 49.85 47.95 49.53 51.62 52.06 47.09 44.73 45.09 45.02 43.89 39.03 44.22 41.78 45.69 43.77 41.98 40.96 41.80 38.53 35.29 38.83 41.83 36.03 35.58 42.37 43.62 44.40 43.56 43.51 43.94 43.61 40.54 39.10 40.41 40.35 41.19 41.55 41.75 42.79 43.25 43.67
50.79 50.81 50.87 50.92 51.14 50.44 49.97 49.72 51.39 51.70 50.97 50.49 49.29 49.52 49.90 51.17 49.63 47.05 43.90 42.46 44.22 41.48 43.63 42.30 42.15 42.43 47.09 43.51 42.50 43.17 39.06 39.90 35.30 36.18 36.19 35.71 36.28 40.39 44.44 44.24 44.49 44.04 45.62 44.45 44.13 43.20 43.17 42.73 41.48 41.58 41.57 42.47 42.91 43.52
50.64 50.58 50.55 50.80 51.06 50.64 50.02 49.55 51.59 51.16 51.06 50.89 51.06 50.25 49.74 47.39 46.22 42.79 42.39 42.65 42.08 42.47 44.83 43.91 45.47 43.66 45.86 47.76 43.75 43.33 39.62 39.78 31.91 39.26 36.99 33.60 39.40 43.79 44.21 44.01 43.94 44.03 44.77 44.97 44.81 43.97 43.00 43.20 43.13 42.37 42.10 41.97 42.16 42.80
50.39 50.50 50.43 50.71 51.01 51.07 50.86 49.82 51.29 51.19 51.02 52.62 50.69 48.42 47.39 46.48 39.09 38.80 37.45 41.39 41.16 44.43 44.27 44.93 43.54 46.68 46.52 46.88 44.81 42.53 38.36 36.87 41.46 36.29 33.59 38.46 42.72 43.87 44.28 44.01 43.98 44.45 45.14 46.16 45.01 44.56 44.12 43.62 44.21 43.89 42.45 42.35 42.21 42.33
50.15 50.36 50.46 50.59 50.83 50.21 51.91 51.95 50.91 51.64 51.34 49.25 47.98 37.38 44.28 41.62 42.82 43.79 43.67 44.40 46.73 44.70 45.19 43.47 43.89 45.09 46.38 43.79 44.06 38.97 40.03 39.77 33.85 30.88 31.75 40.39 43.45 44.23 44.95 44.14 43.67 42.75 44.14 44.63 46.19 45.33 44.30 43.23 43.40 44.47 44.25 44.83 44.23 42.77
50.09 50.12 50.45 50.98 50.71 51.55 51.79 52.11 51.80 51.77 50.37 48.34 49.29 40.98 44.65 47.95 46.54 46.75 44.92 44.60 46.74 45.55 44.59 45.46 45.78 45.93 42.08 40.24 39.85 38.47 35.02 31.76 34.52 34.38 39.14 42.13 43.98 44.59 45.01 43.72 43.31 43.62 44.18 44.05 44.94 46.02 45.77 45.10 44.99 44.53 45.51 46.02 46.19 45.53
50.18 50.31 51.82 50.63 51.12 51.80 51.65 52.03 51.74 52.48 51.73 50.02 49.20 47.90 48.43 44.43 47.03 43.94 45.60 45.28 45.74 44.36 43.29 44.04 42.24 40.15 37.98 39.05 36.37 33.44 32.92 31.72 36.60 40.47 42.72 43.02 44.32 44.41 44.12 43.71 43.43 44.22 44.22 43.52 43.13 43.28 44.90 45.85 46.09 46.12 46.82 46.34 45.69 45.30
49.82 50.13 50.57 50.30 50.55 51.41 51.70 52.69 52.27 50.59 51.11 50.31 49.30 51.34 49.20 47.32 46.43 46.75 45.42 44.87 44.27 43.35 41.98 41.47 36.54 34.89 39.94 35.54 33.90 37.63 36.71 39.54 41.49 42.68 43.40 43.20 43.66 43.93 43.48 42.90 43.24 44.40 43.58 43.58 43.80 43.89 43.49 44.24 45.20 43.95 43.58 45.13 45.81 45.58
48.24 50.68 49.26 49.68 50.32 51.51 52.85 51.99 52.99 52.73 50.48 52.72 48.85 47.81 48.16 48.31 48.59 47.34 47.62 46.61 44.08 42.50 42.40 37.05 40.16 37.80 35.69 33.39 36.47 40.47 42.12 43.41 43.37 43.65 43.86 44.16 44.14 43.15 43.07 43.21 44.23 43.62 43.19 43.26 43.35 43.66 43.69 43.33 42.86 42.27 43.47 44.09 44.23 44.25
49.01 49.83 50.02 50.37 50.16 50.64 51.70 52.78 52.57 50.21 51.42 51.64 51.07 50.25 49.67 50.19 50.63 49.03 46.99 45.22 46.04 46.71 45.03 41.41 40.30 39.99 38.94 41.01 41.63 41.93 42.44 42.87 42.85 43.88 44.25 44.70 43.31 42.60 43.89 43.78 43.99 43.17 42.85 42.96 43.15 42.35 42.74 42.56 42.25 42.74 43.44 43.61 42.95 43.72
49.95 51.00 52.14 51.57 51.02 52.26 51.74 54.35 55.22 51.20 49.46 51.14 50.47 50.48 50.37 51.68 51.73 50.45 48.83 47.18 47.41 45.94 41.67 40.02 41.09 41.72 40.98 43.36 42.84 45.44 45.13 44.66 44.28 43.98 43.33 43.48 43.04 43.37 43.12 42.99 43.68 43.91 44.40 43.40 43.40 40.68 43.70 43.70 44.15 44.06 43.51 42.73 43.07 43.00
50.96 53.55 51.09 52.31 52.23 52.82 52.72 53.37 52.63 52.15 51.60 50.19 50.60 51.68 50.78 51.70 50.14 48.25 47.96 49.41 46.10 46.20 44.22 44.72 44.46 45.80 45.78 45.97 46.61 46.01 45.48 45.22 45.47 45.24 43.69 42.12 42.56 42.80 42.96 43.28 43.59 44.05 43.38 43.64 43.41 42.74 42.33 42.65 43.37 44.07 44.17 43.68 44.31 44.56
54.23 52.92 55.31 53.50 54.46 54.55 54.06 55.64 52.67 52.88 51.90 51.58 51.44 51.09 48.61 47.77 48.21 47.64 48.38 47.21 46.79 46.82 47.38 47.99 48.29 48.15 47.97 47.96 46.88 47.78 48.16 46.93 45.91 44.47 41.38 41.50 42.08 41.68 40.96 41.14 42.38 41.96 41.85 41.27 42.05 42.46 42.76 43.08 43.90 44.25 44.43 44.24 43.99 44.68
53.00 54.21 55.94 55.99 53.55 48.02 47.76 53.66 50.52 51.27 48.70 48.64 50.03 47.49 46.82 46.92 48.13 48.99 46.13 47.86 48.00 50.13 49.88 49.87 49.33 49.08 48.89 49.44 47.75 47.54 47.85 46.64 44.64 43.18 41.82 41.06 40.81 41.59 41.87 41.92 42.14 41.47 41.24 41.83 42.92 42.82 42.66 40.42 42.11 42.75 43.39 44.52 44.35 43.97
52.32 54.64 53.16 52.44 52.02 47.72 52.60 51.15 52.15 50.53 49.57 47.48 46.56 45.12 46.03 47.08 49.63 46.87 44.21 46.71 48.92 50.01 49.82 50.32 49.85 48.60 49.06 48.87 48.32 47.91 47.74 45.51 42.32 41.22 42.02 41.63 40.66 40.61 41.47 42.12 41.99 42.28 42.14 42.74 43.51 43.71 43.26 43.05 41.71 42.22 42.64 43.73 43.96 43.19
45.17 46.65 47.56 39.08 48.91 48.52 47.67 47.60 48.14 48.11 45.27 46.56 45.25 45.68 47.81 49.60 46.06 44.72 44.08 47.45 49.44 49.52 49.66 50.27 49.35 47.87 46.37 47.07 47.30 46.24 43.24 44.07 43.42 41.79 40.98 42.54 42.19 42.20 41.30 42.18 42.61 41.34 42.36 42.84 42.81 43.31 43.76 43.18 42.99 42.70 42.26 42.63 42.12 41.83
38.72 48.43 45.10 48.92 49.84 48.65 47.61 44.82 45.49 45.33 46.62 45.31 45.60 48.92 49.70 47.14 42.59 41.69 46.21 49.37 50.31 50.30 50.58 50.11 48.75 46.74 45.97 45.45 44.51 43.62 42.46 43.33 43.60 42.15 40.55 42.57 42.79 41.25 40.33 39.46 39.36 40.20 42.93 43.17 43.06 42.24 42.48 42.55 42.89 41.36 42.38 41.00 37.88 41.65
41.97 47.92 50.66 52.63 51.19 50.49 48.90 49.08 49.22 47.77 46.07 45.09 47.38 46.42 44.66 40.90 41.01 46.28 50.34 51.43 51.14 50.48 47.58 47.36 47.13 45.26 43.68 42.62 42.30 41.93 42.43 42.67 42.70 41.57 42.29 42.54 43.38 43.61 42.48 40.25 39.23 41.51 43.72 43.22 43.54 43.11 42.36 42.15 41.93 41.88 41.81 42.99 43.15 42.59
50.19 51.00 48.37 50.81 50.46 50.99 47.61 47.55 46.37 46.01 48.18 49.74 48.59 44.01 42.44 42.98 44.21 49.57 50.94 51.65 45.71 43.58 42.49 41.81 42.25 42.49 41.78 41.34 42.17 42.39 41.77 42.06 42.25 42.52 42.74 42.62 42.83 43.40 43.71 43.57 43.81 37.35 43.74 43.83 43.96 44.15 44.25 43.29 42.93 42.37 41.86 41.27 41.76 42.54
50.01 53.73 52.12 49.32 49.46 49.55 49.83 48.96 48.41 49.51 51.99 50.19 47.69 46.15 47.41 49.95 51.21 50.61 50.84 45.51 44.26 43.90 42.17 40.86 40.05 41.53 41.30 41.24 41.05 40.78 40.98 42.04 40.66 38.88 38.30 38.33 39.53 40.10 42.63 43.13 43.54 43.89 44.26 44.27 38.16 40.26 42.95 44.27 43.87 43.56 42.41 42.88 43.48 43.43
50.19 53.11 51.21 50.32 49.14 49.31 52.37 51.90 51.05 52.11 52.31 52.74 52.27 50.36 48.69 48.15 46.72 45.81 45.39 43.87 43.52 43.04 42.67 42.28 41.68 42.90 41.45 41.03 39.72 39.66 40.25 40.99 42.35 41.02 38.86 38.20 38.91 41.30 42.51 42.71 43.00 43.56 44.23 44.19 43.67 43.08 39.18 42.67 41.17 43.63 42.54 42.39 42.30 42.30
52.85 52.35 51.40 51.23 50.68 52.39 52.66 52.49 52.79 52.60 53.00 52.88 51.99 49.59 46.83 47.28 45.06 44.50 44.90 44.64 43.32 42.35 41.67 40.89 40.86 41.95 41.75 40.05 39.04 38.90 38.48 40.53 41.66 42.00 41.94 41.58 41.81 42.10 42.56 43.00 43.52 44.14 44.00 43.82 43.20 42.58 41.35 41.40 41.91 41.27 40.89 40.36 40.07 39.74
51.87 51.64 51.20 50.15 51.11 51.74 52.36 51.73 51.38 50.72 50.94 50.53 49.90 50.91 50.18 47.31 43.97 44.25 43.42 43.64 42.76 42.10 40.79 42.12 41.66 40.31 40.09 40.11 40.50 40.67 38.24 40.76 40.98 41.32 41.33 41.58 41.73 42.11 43.02 43.64 43.80 43.59 42.87 42.12 41.83 41.61 40.97 40.22 39.92 39.68 39.28 38.97 39.14 39.13
52.68 51.94 51.53 50.60 49.44 48.58 50.70 50.71 49.69 48.90 49.57 49.18 49.57 49.77 49.61 48.76 46.14 46.11 44.10 46.10 45.58 44.56 43.04 43.53 42.58 41.06 41.00 41.00 40.72 39.76 39.15 40.77 38.06 35.10 35.18 34.73 34.33 37.51 42.32 42.87 42.85 42.47 41.61 41.34 41.04 40.77 39.81 39.29 39.55 39.11 38.83 38.51 38.64 38.57

GFSWCAN_sfc_wetblb_072.txt.gz
Wetbulb
53.18 52.93 52.81 52.95 52.60 52.31 52.39 52.35 52.66 53.01 53.65 54.19 54.31 54.49 54.47 54.17 53.59 54.56 51.69 55.89 51.41 48.64 48.48 48.55 46.68 44.52 44.94 42.58 38.50 42.77 43.22 43.44 40.74 35.88 35.13 36.20 34.38 35.90 32.78 34.78 32.98 32.73 30.32 32.10 32.72 30.80 29.25 44.52 44.25 37.95 40.57 43.03 45.25 46.65
52.50 52.50 52.60 52.65 52.31 52.35 52.19 52.08 52.50 52.93 53.73 54.18 54.00 54.23 54.50 54.64 53.77 53.60 52.07 54.96 55.63 49.05 49.64 52.22 51.52 51.34 49.20 47.59 43.45 45.77 42.60 41.41 43.70 37.14 38.67 36.85 35.30 36.13 34.59 32.21 37.03 33.21 37.60 35.61 36.39 36.72 43.96 44.37 43.73 46.00 45.29 43.35 44.38 45.20
52.01 52.03 52.42 52.63 52.12 52.09 51.77 52.02 52.29 52.74 53.24 53.72 53.90 53.91 54.62 54.65 54.16 53.54 53.80 53.07 51.55 47.11 50.44 50.64 48.98 51.82 53.12 52.11 52.62 43.90 46.05 45.32 43.07 46.72 40.70 39.21 34.40 36.43 32.44 34.29 35.50 36.59 35.98 35.62 37.05 42.43 43.06 41.78 46.31 46.16 45.82 45.18 46.74 48.07
51.84 52.01 52.36 52.33 52.02 51.90 51.70 52.10 51.92 52.18 52.67 53.51 53.82 54.01 54.60 54.84 53.55 53.29 55.20 54.36 52.90 50.34 46.95 48.37 53.07 50.81 52.43 53.41 51.53 50.91 48.70 49.23 48.40 46.88 41.47 40.10 36.98 40.18 35.19 36.77 34.40 36.62 36.84 36.10 37.66 41.60 40.41 42.12 43.76 44.55 45.28 46.97 46.50 48.00
51.58 51.91 52.04 52.04 51.88 51.86 51.56 51.68 52.10 51.91 52.48 53.67 53.90 53.95 54.51 54.39 52.75 54.09 56.63 55.70 55.65 49.74 47.00 49.44 51.45 51.99 51.43 51.86 50.00 50.62 50.26 47.25 45.27 43.24 41.17 38.61 40.07 38.09 39.17 38.99 34.20 37.14 35.26 33.87 33.85 38.77 39.11 40.16 43.66 44.98 44.28 45.29 47.14 47.00
51.39 51.66 51.81 51.84 52.19 51.44 51.61 51.37 51.89 51.85 52.64 53.14 53.76 54.04 54.47 54.17 51.85 54.81 50.48 54.71 55.90 54.69 48.36 47.07 52.59 50.53 48.53 51.19 50.66 49.43 49.01 47.48 47.30 45.73 42.47 41.99 41.78 39.83 36.63 34.81 39.59 41.14 41.85 39.83 37.99 41.68 42.23 42.83 43.88 44.76 43.74 45.15 46.85 47.80
51.19 51.60 51.70 51.92 52.01 51.75 51.27 51.25 51.39 51.68 52.29 52.72 53.43 53.88 54.04 53.17 54.46 51.03 50.93 52.57 52.19 55.07 47.83 47.05 48.17 50.67 51.60 48.16 48.47 48.13 48.46 47.44 46.90 47.15 45.09 41.05 41.18 41.25 39.06 34.77 40.12 41.49 41.97 41.71 42.33 42.11 39.95 41.99 41.39 43.88 44.43 45.11 47.70 50.45
51.08 51.29 51.53 51.73 52.00 51.70 51.05 50.92 51.15 51.50 52.21 52.89 52.25 52.04 53.04 52.83 52.12 52.00 54.41 50.32 52.45 49.93 50.17 42.55 46.60 47.13 51.52 46.11 43.21 44.05 42.57 45.59 46.58 46.34 47.50 43.44 45.06 42.93 35.45 41.10 42.98 43.66 42.65 41.98 41.94 43.15 42.40 43.31 43.40 42.86 44.51 44.89 46.13 47.49
51.03 51.06 51.37 51.57 51.74 51.49 50.56 50.41 50.72 51.58 52.34 52.73 52.27 52.17 54.50 52.37 51.01 51.20 52.14 51.17 51.70 47.87 43.56 43.57 43.17 43.73 50.59 46.30 43.53 42.64 43.03 39.39 47.85 43.89 45.51 44.84 40.44 34.75 40.65 42.05 42.76 44.00 43.25 42.96 43.64 43.70 42.29 41.27 41.54 41.74 42.01 42.69 42.91 44.71
50.98 50.97 51.11 51.43 51.59 51.60 50.51 50.36 50.56 52.24 52.90 52.82 53.26 51.80 48.97 51.52 52.54 52.62 49.21 46.94 46.39 46.95 46.14 42.04 48.56 46.25 49.13 46.51 43.01 41.19 42.48 39.93 38.76 43.12 47.41 42.51 38.17 43.09 44.39 45.66 46.24 46.18 46.23 45.57 42.28 41.23 41.47 40.02 40.42 40.86 40.69 41.93 42.44 43.54
50.88 50.85 51.03 51.26 51.43 51.23 50.62 49.93 50.70 52.24 51.93 54.34 53.67 53.12 53.84 52.66 50.59 48.30 45.10 44.79 47.12 43.64 47.17 47.31 47.76 46.77 51.36 45.29 45.58 44.94 39.74 42.37 37.00 39.80 40.43 40.75 38.66 41.98 45.34 45.35 47.12 47.84 47.56 46.93 46.51 45.80 45.38 44.19 42.65 40.73 40.68 41.62 42.27 42.67
50.72 50.71 50.81 50.96 51.21 51.11 50.38 50.17 51.02 53.52 57.46 54.27 55.38 55.85 54.02 48.61 47.30 46.47 48.18 48.40 46.81 45.94 49.99 48.29 49.58 48.44 50.36 50.59 47.41 45.00 40.77 41.06 34.83 43.26 38.06 35.74 39.95 44.54 45.22 45.29 46.44 47.95 47.55 46.65 47.29 46.52 46.03 45.52 45.56 44.51 42.25 41.65 42.10 42.81
50.55 50.64 50.61 50.89 51.08 51.01 50.86 50.26 51.00 51.87 52.70 57.20 54.56 50.31 49.71 51.85 41.40 43.18 40.43 44.92 44.16 49.57 49.67 49.16 46.70 49.85 48.16 48.10 46.07 45.03 40.53 39.56 45.39 39.43 33.97 39.87 44.19 45.46 46.11 46.48 46.19 47.60 47.52 46.99 46.90 47.15 47.64 46.72 46.96 46.17 44.42 44.83 43.87 42.95
50.34 50.56 50.57 51.12 50.94 50.15 51.99 50.99 50.89 52.23 54.48 53.32 51.24 39.79 48.04 46.35 47.98 46.84 47.99 48.28 50.00 49.30 48.88 48.39 47.77 46.51 47.33 45.20 47.89 39.91 44.43 44.05 37.87 33.03 34.24 42.25 44.94 45.93 46.71 46.71 46.07 45.86 46.26 46.21 46.13 46.73 46.46 46.62 46.79 47.34 46.58 45.96 45.10 44.04
50.31 50.39 50.66 51.11 51.24 51.91 52.10 52.02 51.26 53.07 55.22 52.16 52.48 42.59 48.64 51.66 52.13 52.43 51.61 49.67 49.33 48.51 47.33 47.11 50.28 49.81 44.67 42.26 43.57 41.56 37.60 35.08 37.83 37.53 41.99 44.48 46.05 46.09 45.91 46.27 45.93 45.94 46.07 45.76 46.19 46.11 46.21 46.33 46.40 46.63 47.43 46.93 46.45 45.94
50.30 50.06 54.38 50.59 51.21 52.30 51.69 51.91 52.07 56.43 55.77 53.64 52.95 50.82 52.34 51.16 49.85 52.24 52.69 50.88 47.51 48.19 48.61 47.56 43.76 41.01 39.88 41.04 37.87 36.52 35.70 33.95 40.50 43.67 45.32 47.73 46.42 46.19 46.53 47.11 46.79 47.55 46.59 46.43 46.45 46.54 46.28 46.15 45.92 46.40 47.24 47.29 46.93 46.89
49.51 56.61 50.54 50.64 51.45 51.83 51.92 56.07 55.91 53.80 54.44 52.95 52.46 55.64 53.88 52.90 51.73 52.02 50.99 47.72 49.11 46.23 43.36 42.23 35.66 35.29 41.53 37.53 36.67 43.01 38.80 41.33 44.03 46.52 47.43 47.08 46.71 46.67 47.66 47.47 47.19 48.35 47.40 46.73 46.85 46.85 46.51 46.82 46.87 46.16 45.37 46.81 47.16 47.27
53.57 54.75 50.06 50.15 52.06 51.86 55.20 55.78 56.03 55.39 52.22 54.56 52.79 53.86 54.48 54.23 52.81 52.75 52.11 52.15 47.98 46.45 43.38 39.69 45.28 39.20 39.09 36.38 38.12 42.56 45.49 47.52 48.04 47.76 47.61 47.79 48.34 47.55 47.63 47.49 48.15 47.81 46.74 46.67 46.54 46.24 46.47 45.86 45.04 44.95 46.01 46.98 46.13 46.64
52.26 52.02 50.68 50.43 51.23 54.81 55.30 56.12 56.30 52.64 54.20 56.01 56.72 56.80 55.08 54.72 53.92 52.82 50.93 51.21 50.82 49.82 46.51 45.29 41.68 40.12 40.45 43.81 43.94 44.59 45.37 46.73 45.57 47.26 47.94 48.20 47.81 46.99 47.42 47.79 47.20 47.46 47.06 46.41 45.96 44.81 45.87 46.20 46.00 46.15 45.70 46.45 44.05 46.15
49.96 50.92 52.02 52.24 51.88 56.28 53.56 56.72 60.30 56.29 53.41 55.03 57.18 55.62 55.57 54.20 54.96 53.42 52.66 52.43 52.07 51.36 47.55 44.19 44.51 46.81 46.64 47.51 45.86 47.89 47.89 48.55 46.80 44.49 44.45 45.73 46.70 47.47 46.76 46.83 45.86 46.70 46.44 47.83 46.07 39.55 44.80 44.55 45.11 45.26 46.15 46.11 43.95 44.25
51.94 55.04 51.81 54.86 56.04 56.69 56.59 57.28 56.12 57.36 55.84 55.11 56.48 56.52 54.13 55.32 53.05 52.16 52.38 54.73 51.62 49.05 47.19 49.91 49.24 50.05 51.55 51.49 52.48 51.78 49.98 48.86 46.50 45.65 44.44 44.01 46.10 46.84 47.45 48.34 46.83 45.79 44.80 43.63 42.98 42.56 42.14 44.66 44.53 45.00 44.78 44.66 45.11 44.73
58.62 53.10 60.05 56.92 57.48 58.55 57.91 61.27 57.18 58.14 56.62 56.02 56.16 55.78 52.13 50.77 51.95 51.98 53.46 51.10 48.84 49.03 50.15 50.24 49.93 50.74 49.99 49.78 51.25 51.95 51.77 52.06 51.35 46.85 41.47 42.75 45.49 45.91 46.01 45.52 44.57 43.39 44.95 44.48 44.89 43.47 43.29 44.73 45.48 45.25 44.73 44.48 44.21 44.92
54.14 56.54 59.51 58.61 56.03 52.56 51.11 58.78 53.73 55.39 51.43 52.94 55.09 51.47 51.23 52.04 52.87 54.82 50.19 50.82 50.60 53.12 52.97 52.76 53.11 53.96 52.47 53.14 53.55 52.67 52.56 51.77 48.65 48.79 47.91 47.13 46.35 46.69 45.12 44.82 43.72 42.81 43.46 44.05 44.52 44.41 46.06 40.77 45.07 46.12 45.41 45.10 44.77 44.90
51.55 57.27 55.29 55.96 55.62 49.99 57.19 54.53 57.45 55.36 54.56 52.08 50.55 47.75 49.53 51.01 54.02 51.18 46.68 49.02 51.00 52.63 52.52 53.60 52.80 49.93 51.14 51.91 49.20 49.54 52.36 51.58 49.80 48.00 48.46 45.97 44.42 44.08 43.82 44.40 43.53 43.72 44.51 45.18 44.54 45.64 46.39 46.21 43.72 46.33 44.87 47.33 43.79 43.73
48.09 49.12 50.05 41.35 53.39 51.77 50.26 50.99 51.28 51.97 47.91 49.88 47.51 48.21 50.72 53.91 49.37 47.02 46.27 48.51 51.57 51.72 51.30 52.80 51.43 51.96 48.83 48.42 48.86 48.74 49.21 48.22 46.63 45.59 47.22 47.15 44.63 44.74 44.24 43.85 44.12 44.72 45.55 46.00 45.45 44.80 46.25 47.35 45.08 44.65 46.02 43.93 43.73 43.49
38.55 51.25 47.64 51.71 53.79 51.76 52.39 48.06 48.68 48.54 50.32 48.66 49.06 52.68 52.85 50.60 44.75 42.76 47.96 49.96 50.96 51.80 51.53 51.66 51.00 49.57 48.25 47.86 46.61 46.20 46.36 48.43 48.14 44.80 45.49 47.77 45.24 43.52 42.27 41.14 40.30 41.47 45.59 44.42 44.20 44.71 45.01 45.22 44.63 44.31 44.79 42.28 39.52 43.71
42.76 49.88 55.15 58.69 56.99 55.82 54.38 54.97 54.78 52.13 48.76 48.50 51.38 49.67 48.58 43.15 43.61 49.05 52.99 55.25 54.33 53.16 51.80 51.37 50.03 48.11 46.86 46.49 46.77 47.16 47.34 47.42 46.79 45.75 46.75 46.37 46.01 45.42 43.87 42.36 41.42 43.55 45.51 44.59 44.64 44.20 43.83 44.32 44.00 44.44 44.74 44.33 43.63 44.19
52.77 53.84 50.97 54.58 54.51 56.40 51.48 52.48 50.49 48.96 51.88 54.71 53.14 47.25 45.14 44.95 47.20 52.77 54.90 55.54 52.51 50.70 49.16 48.55 48.58 48.18 47.19 46.86 47.21 46.84 46.33 46.52 46.59 46.41 46.16 46.10 46.24 45.53 45.58 45.64 45.25 38.89 44.93 45.28 44.81 45.07 44.48 44.49 45.42 44.46 43.59 42.92 42.66 43.81
52.68 55.85 55.40 52.75 53.57 54.13 53.73 52.61 53.23 55.47 56.98 54.98 52.22 50.71 50.39 54.10 55.18 54.58 54.27 52.53 51.64 49.95 47.62 46.60 46.44 47.35 46.69 46.57 46.46 45.98 47.26 46.70 43.80 41.30 40.51 41.32 41.67 42.32 45.80 46.54 46.66 46.66 45.79 45.38 36.15 40.83 45.38 44.88 44.61 44.03 44.16 43.55 43.95 44.86
52.50 57.07 54.33 53.23 52.09 52.76 56.38 57.64 57.00 57.24 58.48 58.22 57.24 54.68 53.94 53.43 51.98 53.74 52.53 50.92 49.65 48.93 48.48 47.85 47.70 48.35 46.18 45.46 43.06 42.99 45.68 46.86 46.55 44.46 42.26 40.97 41.37 44.48 45.59 45.78 45.89 46.41 46.52 45.39 44.39 45.17 39.42 42.90 41.01 44.31 42.88 42.64 43.16 43.95
57.47 55.69 53.76 54.86 53.72 57.44 58.55 58.54 58.25 57.92 56.96 56.23 56.69 54.23 53.57 51.20 49.86 50.98 51.70 51.48 50.30 48.61 47.30 46.23 46.30 47.81 46.86 44.32 43.47 42.53 41.89 44.95 45.17 44.92 44.84 44.51 44.66 45.19 45.60 45.85 46.82 46.91 46.27 45.08 44.17 44.19 44.75 43.08 42.41 42.22 41.72 41.62 41.53 41.16
55.09 54.17 54.31 52.10 55.23 57.37 57.27 56.38 56.58 55.30 55.35 54.44 54.22 54.92 52.93 50.60 48.35 48.43 50.19 49.84 48.36 47.50 44.85 46.47 45.94 44.54 44.93 44.77 45.47 45.18 41.29 44.91 44.78 44.78 44.39 44.69 44.87 45.53 46.09 46.35 46.43 46.36 45.88 45.34 45.61 44.80 43.58 42.41 42.07 41.56 41.55 41.28 41.43 41.25
56.60 56.57 56.02 55.94 54.68 53.20 55.38 55.01 53.55 53.28 53.80 53.69 54.00 54.04 53.42 52.48 49.56 50.52 49.73 50.84 49.92 49.12 47.84 47.82 46.75 45.90 45.87 45.19 44.81 43.77 42.50 44.71 39.71 35.28 36.03 35.45 35.40 39.01 45.83 45.89 45.86 45.97 44.55 44.86 44.51 44.30 42.72 41.82 42.27 41.35 41.29 41.09 40.78 40.64

GFSWCAN_sfc_wetblb_075.txt.gz
Wetbulb
54.01 53.42 53.21 53.19 52.86 52.80 52.82 52.69 53.04 53.29 53.73 54.56 54.49 54.42 54.29 53.83 53.86 55.40 55.80 58.32 54.02 52.46 51.36 51.17 49.51 45.88 44.92 46.50 43.73 47.18 45.03 45.88 42.66 38.68 39.41 38.90 37.40 38.47 34.09 36.24 35.91 35.25 35.17 35.85 36.19 32.43 30.86 46.64 46.48 40.95 46.78 49.31 48.22 48.26
53.64 52.78 52.80 52.86 52.59 52.62 52.40 52.38 52.67 52.94 53.50 54.27 54.19 54.27 54.47 54.58 54.06 53.92 56.91 58.87 57.73 53.41 52.87 54.82 54.06 53.66 51.41 50.50 50.21 48.09 45.24 43.92 43.61 40.12 41.48 41.59 37.96 39.63 36.86 32.86 39.74 35.36 35.73 34.47 37.95 38.33 45.31 48.31 46.46 49.04 49.68 47.74 47.32 48.10
52.92 52.43 52.49 52.84 52.49 52.45 52.49 52.26 52.65 52.65 53.09 53.77 54.01 54.03 54.59 54.78 54.40 53.66 57.03 57.72 55.73 53.32 51.71 52.11 51.75 54.29 55.57 54.09 55.10 45.18 48.24 47.66 48.58 48.54 44.52 42.15 36.26 42.65 35.12 36.17 36.76 39.02 40.46 36.28 38.35 42.99 45.44 45.85 48.68 48.41 47.59 46.87 47.46 48.98
52.39 52.47 52.57 52.64 52.26 52.20 52.20 51.99 52.46 52.55 52.91 53.34 54.05 54.19 54.56 54.83 54.50 53.65 56.86 58.43 55.93 54.00 48.44 50.32 56.33 53.94 55.30 55.64 53.97 54.06 51.82 50.71 51.23 47.71 43.37 41.89 38.49 42.78 38.10 38.61 35.94 37.93 37.96 36.94 37.65 41.93 41.95 44.68 43.60 44.39 44.91 46.36 47.09 48.31
52.02 52.20 52.35 52.37 52.31 52.10 52.09 51.99 52.28 52.07 52.66 53.77 54.27 54.14 54.60 54.89 54.03 54.31 57.95 59.39 59.21 52.87 49.53 49.31 54.98 55.59 55.69 55.19 53.03 53.21 52.66 50.21 49.65 46.67 44.89 42.95 44.03 42.90 41.83 40.19 36.66 37.58 34.47 33.78 33.19 37.54 37.31 39.06 43.03 44.33 44.27 44.46 46.46 47.42
51.65 51.69 51.79 52.04 52.37 52.12 51.83 51.62 51.93 51.99 52.76 53.77 54.09 54.34 54.47 54.91 53.11 54.57 53.23 58.61 60.34 57.25 50.21 46.90 55.73 53.39 53.46 53.42 51.47 50.63 52.00 50.85 47.44 44.14 45.51 47.85 45.49 42.71 38.26 36.80 40.19 41.49 41.08 41.20 37.82 41.68 41.25 42.15 43.32 44.55 43.29 44.41 45.79 46.76
51.54 51.50 51.72 52.18 52.27 52.16 51.90 51.30 51.49 51.78 52.55 53.21 53.67 54.24 54.60 54.16 55.41 51.89 50.58 53.39 52.87 56.50 49.35 49.08 47.24 54.41 53.21 52.60 49.41 47.60 50.01 49.94 48.26 45.86 43.43 47.20 44.75 44.07 41.84 37.18 41.99 42.31 42.18 42.48 43.48 42.92 39.60 40.69 40.17 42.74 42.79 44.89 46.65 47.70
51.19 51.45 51.60 51.98 52.18 51.95 51.71 50.95 51.37 51.63 52.34 52.90 52.66 52.93 53.87 53.67 52.96 52.95 55.90 51.63 52.88 51.85 51.50 45.56 48.52 49.99 53.33 47.08 44.81 45.76 44.25 45.20 47.70 46.27 46.35 43.44 46.44 45.13 37.89 42.51 43.83 44.67 43.89 43.38 43.38 44.09 42.48 42.04 42.12 41.21 42.17 43.16 43.59 44.33
51.14 51.25 51.39 51.77 51.85 51.86 51.50 50.59 50.89 51.26 52.09 52.80 52.42 52.98 54.94 52.32 51.46 54.01 52.26 51.38 55.53 50.97 45.35 45.65 46.85 44.86 53.78 48.08 45.32 43.67 44.03 41.02 46.64 46.33 45.16 46.49 42.96 34.31 41.94 43.09 43.12 44.56 43.87 44.33 44.11 44.06 43.97 41.85 40.03 40.29 40.10 40.87 40.87 42.71
50.96 51.01 51.17 51.49 51.78 51.87 51.42 50.55 50.80 51.60 52.64 53.19 53.63 51.47 49.53 53.76 53.21 53.11 51.93 49.46 48.63 49.55 48.19 45.05 51.70 46.75 51.65 48.53 44.56 43.10 42.62 41.38 39.97 43.01 49.08 44.46 42.35 45.73 44.56 46.62 45.98 45.79 46.35 45.79 42.56 41.55 42.12 41.55 40.14 39.65 39.37 40.95 41.52 41.94
50.98 50.92 51.17 51.39 51.70 51.66 51.11 50.68 51.12 52.82 52.52 55.57 54.72 52.65 54.81 53.49 52.70 49.79 46.55 47.12 48.41 44.85 49.22 49.41 50.95 47.66 53.43 47.54 46.02 47.38 42.85 43.24 38.72 43.04 43.58 42.28 41.83 43.22 46.26 45.64 47.58 47.44 46.74 46.12 45.71 45.37 45.35 44.44 43.52 41.88 41.52 41.43 41.75 42.31
50.77 50.86 51.10 51.18 51.60 51.43 50.96 50.88 51.36 54.44 59.58 55.85 56.85 58.49 54.81 50.08 48.89 47.87 49.44 51.27 49.43 47.02 49.37 48.82 48.55 50.26 52.01 53.23 47.91 46.74 41.54 44.05 36.11 47.19 42.56 35.81 43.38 45.86 46.55 47.08 46.46 48.43 48.38 47.12 47.00 45.99 45.39 45.52 45.66 45.29 44.29 43.35 42.10 42.90
50.61 50.87 50.92 51.00 51.96 51.43 51.18 50.52 50.77 52.65 53.23 59.26 55.16 51.17 50.12 52.69 42.38 45.59 42.93 45.98 44.13 47.81 47.45 46.52 45.74 50.41 51.97 51.75 47.43 45.06 39.38 38.77 46.06 41.63 35.73 42.40 45.63 47.28 47.12 47.50 47.21 48.65 47.77 47.85 46.73 47.27 46.73 46.10 46.69 46.34 45.09 45.57 44.33 43.71
50.33 50.63 50.82 50.88 51.36 51.41 51.94 50.79 50.96 52.65 55.14 55.15 51.81 41.92 49.64 47.76 48.27 46.90 45.37 50.57 52.27 51.73 49.53 47.67 46.75 49.32 47.43 45.49 45.02 39.72 44.03 45.28 39.33 35.39 36.55 43.46 46.65 47.48 46.64 48.27 47.45 46.48 47.16 47.01 47.12 47.38 46.55 46.21 45.81 46.46 46.30 46.27 46.06 45.37
50.51 50.64 50.90 51.13 51.44 52.22 52.50 51.80 51.05 55.79 57.17 53.96 54.68 45.01 49.01 52.12 51.48 53.15 53.05 52.34 53.04 52.83 47.52 47.03 48.67 45.50 43.86 42.02 43.74 42.61 39.59 36.74 39.22 39.58 43.17 46.17 48.11 46.46 46.42 47.48 47.43 47.56 46.64 46.31 46.96 47.10 47.17 46.97 46.22 45.74 46.77 47.08 46.88 46.85
50.40 49.49 55.39 51.30 51.89 52.48 52.17 51.95 52.67 58.16 57.90 55.56 54.51 51.70 52.59 52.69 51.58 52.00 52.24 52.31 54.28 54.04 51.90 49.65 45.92 42.54 43.19 44.05 40.00 38.61 37.44 36.17 39.84 43.16 46.13 48.25 48.07 47.64 47.50 47.70 48.18 48.20 47.97 47.22 46.61 47.29 47.56 47.03 46.56 46.60 46.90 46.90 47.63 46.93
48.94 59.30 51.10 51.63 52.40 52.14 52.14 56.81 58.17 55.76 55.50 54.15 52.34 52.86 51.57 54.04 51.09 51.94 53.66 52.93 55.54 49.92 46.82 47.27 40.67 40.04 46.81 41.16 39.18 43.10 40.81 42.62 45.11 46.45 48.02 48.87 48.21 48.16 48.10 47.99 47.84 48.01 47.54 47.98 47.83 47.80 47.43 47.98 47.59 47.27 46.30 47.29 47.20 47.65
56.60 55.28 50.85 50.81 53.53 52.64 57.56 57.12 57.82 56.35 53.20 54.16 50.39 53.37 55.73 54.68 53.67 52.61 53.39 53.50 52.41 51.60 51.56 45.24 49.65 41.71 39.13 38.77 41.38 45.41 45.86 46.65 48.13 47.55 47.81 49.70 49.40 48.69 48.20 47.61 47.68 48.88 48.35 47.95 47.95 47.81 47.38 46.96 46.80 46.27 47.50 47.87 47.83 47.96
53.46 52.94 51.11 50.44 53.39 56.99 57.80 58.07 58.55 53.52 53.76 55.45 56.02 56.53 55.49 55.20 55.85 55.61 54.54 54.46 54.20 54.13 52.09 49.53 44.55 43.36 43.62 47.43 46.07 47.14 47.03 46.84 45.88 47.69 49.16 49.02 49.67 48.43 47.93 48.44 48.10 47.49 47.78 47.88 47.26 46.48 47.30 48.11 46.83 46.08 46.27 47.34 45.10 47.53
50.35 50.83 51.50 51.12 51.31 58.47 55.89 57.56 62.62 57.11 53.89 55.69 55.17 55.63 56.63 55.63 53.73 55.05 55.29 53.50 52.91 52.65 48.61 46.18 46.30 47.83 46.18 48.08 50.02 50.00 48.20 48.46 47.35 45.95 46.15 47.17 47.87 48.02 47.42 47.63 47.16 47.94 47.22 46.62 46.64 42.45 46.14 48.50 48.88 47.62 46.82 46.70 45.62 45.46
49.59 55.79 53.13 55.20 56.76 58.84 57.74 57.71 55.97 57.95 56.63 55.42 57.21 57.59 56.31 56.21 54.90 54.12 54.20 53.37 51.73 49.07 46.85 50.58 50.06 50.14 51.97 51.32 50.68 50.15 51.29 48.74 47.07 46.69 45.43 44.70 46.60 47.48 47.41 47.08 47.29 46.00 45.13 45.46 44.93 45.60 45.43 45.76 46.77 47.66 47.72 47.22 47.66 45.89
59.59 53.28 61.14 58.67 59.19 60.10 59.08 62.34 58.82 59.26 57.97 56.99 56.02 56.40 53.54 53.05 53.69 52.89 54.36 50.48 49.00 49.45 49.82 49.80 49.67 50.45 50.55 50.51 50.89 51.70 52.05 51.16 50.83 48.39 41.64 43.98 45.44 45.44 45.53 46.46 45.78 45.37 45.17 44.79 45.01 46.47 45.58 46.31 47.41 47.66 46.40 47.13 46.08 46.59
52.36 57.39 61.04 60.33 57.13 54.97 53.04 61.90 55.58 56.56 52.24 52.87 55.52 52.14 52.73 52.70 54.55 56.23 49.52 51.77 50.84 51.86 52.33 51.13 52.67 53.07 52.78 53.39 53.03 52.36 53.20 51.31 49.28 48.23 48.41 46.73 47.46 47.62 46.50 45.76 46.19 44.00 44.35 44.37 46.33 46.26 45.76 42.31 46.13 46.52 47.38 47.80 46.34 45.89
52.67 58.94 56.34 56.99 56.59 51.21 58.58 55.56 57.93 56.56 56.31 52.55 51.22 48.93 50.01 51.85 54.77 52.10 47.27 49.58 50.90 53.12 52.85 53.14 52.52 50.97 51.79 52.90 49.94 50.56 50.72 50.00 49.07 49.43 49.57 47.65 45.32 44.53 45.92 46.06 45.72 45.57 45.48 46.75 45.60 45.34 46.31 45.85 42.91 48.17 46.14 45.24 46.77 45.76
49.97 49.33 51.91 42.33 55.84 53.52 52.09 51.50 51.88 53.10 49.18 51.29 49.20 49.36 50.79 54.54 50.04 48.14 46.95 49.62 51.16 52.57 53.38 53.21 51.65 51.75 50.09 49.31 49.06 49.84 50.93 48.41 47.26 47.08 47.74 48.37 48.02 47.04 45.76 46.05 45.25 44.57 45.72 44.68 45.66 44.29 44.38 45.85 45.99 45.23 47.48 46.38 44.32 44.98
41.55 52.18 48.21 53.45 54.23 52.70 53.22 48.80 49.67 49.85 51.83 50.28 51.11 54.78 54.87 51.35 45.43 43.57 48.74 50.67 51.28 52.09 52.11 51.94 51.08 49.60 49.05 48.64 47.17 46.92 47.30 49.19 48.99 46.54 46.96 47.50 46.27 45.28 43.97 43.34 42.71 43.42 45.88 46.08 45.85 44.39 45.10 45.83 45.29 44.56 45.03 43.09 40.39 43.87
43.56 51.09 56.00 60.14 58.33 57.77 55.29 55.99 56.21 53.46 50.21 50.16 53.58 52.19 51.37 44.71 44.97 49.41 53.62 55.83 54.02 53.87 54.83 53.07 50.70 48.72 48.02 48.01 48.28 48.42 48.71 48.67 48.22 47.34 47.76 47.35 47.11 46.94 45.93 44.39 43.22 44.80 46.58 46.37 45.92 45.88 45.40 44.30 45.51 44.45 44.64 45.32 45.71 44.81
54.15 55.28 52.80 55.70 55.79 58.07 53.03 53.84 51.79 50.39 52.73 56.15 55.74 49.02 47.87 47.73 48.98 53.99 55.47 56.04 54.64 54.32 52.67 51.27 50.67 49.99 48.82 48.79 49.09 48.63 48.17 48.45 48.32 48.07 47.64 47.26 47.39 47.73 47.71 46.61 46.38 40.09 45.85 46.85 46.18 46.26 45.72 46.07 45.44 45.18 44.37 44.43 45.80 45.00
53.32 56.15 56.75 54.06 55.09 56.02 55.29 53.92 52.71 56.41 57.92 57.21 54.34 52.66 53.34 56.23 57.76 56.11 55.64 54.70 53.90 51.78 49.79 49.00 48.88 49.65 48.96 48.85 48.36 49.14 49.49 48.26 46.19 43.78 42.86 43.73 43.66 44.89 49.47 47.94 47.17 46.92 46.34 46.14 37.18 42.22 45.63 45.02 45.28 45.52 45.06 44.66 46.08 45.60
53.53 57.46 54.85 54.57 53.71 52.87 56.37 58.59 56.80 59.39 61.09 59.55 59.73 57.76 57.07 57.01 57.46 58.35 55.55 53.91 52.46 51.74 51.09 50.29 49.70 50.56 49.41 48.30 45.56 46.60 49.32 49.66 49.57 47.94 45.32 43.56 44.04 47.36 48.20 48.26 47.84 47.46 47.20 46.81 45.53 45.77 39.91 44.46 43.69 45.43 44.61 44.42 44.83 44.87
58.13 57.23 55.67 55.15 53.60 56.60 59.87 62.38 61.89 61.41 60.55 59.08 59.86 56.88 56.69 55.90 54.77 55.04 55.14 54.42 54.06 52.56 50.36 48.75 48.60 49.61 49.62 47.26 46.35 45.63 44.95 47.41 47.34 47.04 46.86 46.62 47.17 47.52 47.90 49.18 49.78 48.58 47.35 46.64 47.35 46.00 44.73 46.35 46.48 44.76 43.67 42.77 43.19 42.85
57.06 55.95 54.25 53.11 54.88 60.10 61.21 59.19 59.43 58.06 58.38 57.51 57.25 58.43 57.50 55.33 52.38 53.00 54.88 54.58 52.44 50.77 47.59 49.29 48.19 46.81 48.27 48.02 48.42 47.78 43.64 47.17 46.81 46.79 46.56 47.42 47.46 47.77 48.12 48.45 49.05 48.52 48.44 47.86 47.74 46.21 45.32 44.53 44.30 43.86 43.71 42.54 42.22 42.58
56.75 56.79 56.46 55.57 55.68 55.49 58.34 57.77 56.62 55.65 56.80 56.30 56.91 57.49 56.90 55.73 52.73 54.47 55.19 55.36 53.35 52.44 50.65 50.47 49.61 48.53 48.59 47.89 47.67 46.79 45.34 46.97 40.81 36.24 37.23 36.06 35.14 39.13 45.35 48.11 47.78 48.07 46.94 47.85 47.16 46.37 44.98 43.93 44.04 43.39 42.74 42.55 42.30 42.47

GFSWCAN_sfc_wetblb_078.txt.gz
Wetbulb
55.24 54.53 53.65 53.57 53.24 53.15 53.28 52.80 53.28 53.24 53.69 54.49 54.86 55.14 55.55 55.54 55.33 55.04 56.74 59.18 55.55 52.16 52.69 52.85 51.25 49.00 48.96 48.30 44.98 47.93 46.76 46.50 44.15 39.35 38.95 38.28 37.26 38.58 35.02 37.04 35.72 35.23 34.97 35.06 36.83 33.48 31.11 47.04 46.23 40.08 46.30 48.39 48.95 49.00
54.98 54.33 53.11 53.13 53.26 52.93 53.07 52.72 52.99 53.05 53.60 54.03 54.61 54.96 55.09 55.32 55.10 54.50 56.97 59.21 58.49 54.14 53.51 56.12 55.47 54.75 52.68 52.04 49.94 49.53 46.06 44.66 45.66 42.26 41.54 42.63 38.91 40.33 37.70 32.82 41.32 35.00 36.56 33.43 35.74 37.18 44.60 46.15 44.71 46.53 49.56 48.27 49.42 48.86
54.43 53.49 52.84 52.97 53.16 52.74 52.95 52.66 52.91 52.89 53.11 53.76 54.45 54.71 54.83 55.10 55.12 53.84 56.47 58.58 57.47 54.28 53.27 53.57 52.56 55.75 56.52 55.24 55.47 48.59 49.32 48.70 48.13 48.92 44.14 42.98 38.97 42.35 35.71 37.48 37.46 40.36 41.22 36.53 36.69 40.42 41.13 42.52 45.60 46.29 45.64 45.39 47.63 48.73
54.03 52.97 52.66 52.82 53.03 52.56 52.66 52.66 52.80 52.91 52.88 53.39 54.13 54.66 54.98 54.96 54.95 54.18 55.91 58.46 56.89 54.70 48.43 50.38 57.50 54.98 56.66 56.16 54.72 54.25 52.52 52.49 51.14 49.70 45.03 43.94 39.69 44.45 40.05 39.42 37.51 40.59 39.69 37.37 36.80 40.46 39.47 43.12 41.69 43.70 44.38 45.54 46.18 47.58
53.57 52.58 52.20 52.39 52.74 52.53 52.43 52.31 52.41 52.87 53.15 53.60 54.46 54.68 54.92 55.13 54.92 54.68 57.45 58.62 59.21 52.58 48.86 50.80 54.78 56.08 56.32 55.85 53.99 53.34 51.44 50.15 47.72 47.51 44.65 42.81 44.22 42.46 42.50 42.68 36.74 40.01 37.04 34.60 34.72 38.48 37.11 37.73 41.64 42.83 42.83 43.48 44.31 44.69
52.76 52.06 51.87 52.12 52.45 52.60 52.37 52.23 52.39 52.74 52.83 53.55 54.34 54.41 54.80 55.29 54.37 55.82 53.80 58.02 57.06 57.65 51.14 47.14 55.68 54.90 55.24 55.30 52.98 52.12 51.77 50.43 48.71 45.71 46.50 46.41 47.49 44.02 39.70 37.44 42.95 43.65 42.32 41.82 38.87 41.71 41.71 41.99 41.96 42.93 41.39 41.94 43.52 44.54
52.49 51.83 51.75 51.99 52.53 52.68 52.43 52.35 52.06 52.07 52.62 53.32 54.01 54.12 54.88 54.69 54.69 53.53 52.35 54.57 53.27 56.51 49.57 48.63 48.33 53.47 54.98 54.09 52.72 51.94 51.48 49.73 48.03 47.89 46.25 44.73 45.15 44.31 42.49 38.13 43.40 44.73 44.02 43.46 43.58 43.91 40.43 41.39 39.41 41.84 41.02 41.73 43.85 46.12
51.99 51.42 51.60 51.85 52.43 52.39 52.26 51.92 51.24 51.57 52.35 52.97 53.57 53.42 54.08 54.18 53.15 52.96 56.30 53.20 54.01 51.98 50.93 46.82 47.95 51.25 55.02 48.64 46.70 50.30 47.85 46.26 47.39 47.69 48.10 44.23 47.12 45.61 39.08 43.11 45.26 46.21 45.91 44.45 43.67 45.08 44.28 43.59 42.95 41.53 41.18 41.51 41.26 42.05
51.53 51.19 51.52 51.60 52.08 52.29 51.96 51.62 50.97 51.37 51.85 52.89 53.36 52.80 54.55 51.85 51.34 54.15 53.63 52.85 54.11 51.62 45.88 46.54 45.81 43.19 53.22 50.05 47.26 45.17 45.83 40.43 46.91 45.85 46.33 46.33 43.87 34.22 41.82 44.31 44.65 45.20 45.26 44.69 43.99 44.02 44.30 42.71 42.23 41.75 41.28 40.61 39.77 40.43
51.17 51.08 51.31 51.56 51.92 52.12 51.90 51.42 50.97 51.43 52.28 53.20 53.39 52.52 49.73 54.09 54.17 53.56 52.79 49.39 48.73 49.15 48.33 45.64 50.68 46.07 50.36 48.76 44.64 43.41 42.91 41.14 40.50 44.91 48.07 44.86 42.16 46.65 46.76 46.65 47.89 46.76 47.25 46.95 44.13 43.08 42.83 42.59 42.30 42.03 41.45 41.64 40.98 41.55
50.91 51.00 51.16 51.62 51.86 51.96 51.67 51.27 51.18 52.16 52.59 54.33 54.19 53.15 56.91 53.88 53.96 50.77 46.23 45.73 47.80 44.79 47.83 48.45 49.43 45.24 50.54 46.40 45.73 46.52 42.24 43.48 38.52 42.40 42.09 41.43 41.07 44.05 47.27 46.28 48.30 47.94 48.34 46.52 47.50 46.52 46.38 45.40 44.40 43.29 42.74 42.05 41.73 42.56
50.68 50.79 51.06 51.20 51.64 51.71 51.74 51.29 51.45 53.60 59.13 55.33 55.10 58.79 57.79 51.55 48.91 46.18 48.35 49.52 47.75 44.54 48.69 48.70 47.84 49.12 50.14 51.94 48.50 45.29 40.42 42.16 36.09 44.70 40.94 36.64 44.07 46.73 46.99 46.94 47.57 48.66 48.41 47.63 47.62 47.15 46.65 46.93 46.47 45.48 44.46 42.89 42.64 43.66
50.45 50.75 50.80 51.04 51.59 51.97 51.43 51.07 51.06 52.59 53.74 58.68 54.44 51.53 50.65 51.22 42.48 44.22 40.31 46.02 42.28 47.67 49.97 48.69 47.29 50.39 49.06 47.16 45.91 43.70 38.57 37.60 45.62 39.09 36.98 40.95 46.94 46.95 47.73 47.89 47.57 48.48 48.51 47.43 46.61 47.22 46.72 47.41 47.59 46.52 45.30 45.28 44.65 44.77
50.28 50.74 50.87 51.21 51.64 51.84 51.52 51.25 50.95 51.96 53.39 54.49 51.97 42.52 49.31 47.21 45.49 45.04 47.18 47.77 51.60 52.36 50.92 50.12 47.57 47.52 48.60 45.53 45.06 40.21 43.14 42.95 38.50 35.99 37.29 45.07 46.80 47.13 47.94 48.63 47.71 46.70 47.88 46.66 46.61 46.95 47.02 45.91 46.77 47.52 46.77 46.87 45.87 44.73
50.45 50.62 51.11 51.00 52.18 51.93 52.81 51.55 51.06 54.69 55.93 53.56 53.24 44.47 45.49 48.99 50.54 51.88 54.77 52.13 53.31 54.55 51.67 49.17 49.35 48.49 46.46 44.47 46.30 43.39 39.98 37.21 39.08 38.19 38.13 47.34 48.17 48.09 47.40 47.29 47.22 47.59 46.50 47.33 47.29 46.59 46.97 46.59 46.68 46.69 47.52 47.69 47.16 45.89
50.52 49.88 55.13 52.37 52.10 52.78 52.56 51.93 52.95 57.21 57.32 55.26 54.11 50.86 55.15 51.13 50.77 53.06 53.29 50.69 53.82 52.61 52.51 50.62 45.51 43.84 43.07 44.06 41.59 39.38 37.89 36.28 40.62 44.86 46.54 47.03 48.28 48.23 48.66 47.81 48.19 48.51 48.56 47.20 47.65 47.95 47.09 47.19 47.03 46.24 48.26 47.83 47.28 47.48
48.82 59.00 51.73 52.45 52.61 52.42 52.24 54.93 57.12 55.80 55.22 53.48 49.67 54.73 52.45 54.56 51.98 52.32 52.65 52.04 54.71 50.71 46.76 47.93 42.12 41.08 46.26 41.72 39.30 43.68 40.48 42.64 45.36 47.27 48.26 49.89 48.72 48.29 48.11 47.90 48.16 48.57 48.69 46.58 46.96 48.35 47.98 47.95 48.62 47.53 46.20 48.03 48.62 48.13
56.31 54.01 51.81 52.73 54.44 53.95 57.81 55.87 57.75 55.94 52.45 50.47 49.35 49.45 54.79 55.05 53.18 52.62 53.32 53.78 52.06 49.84 49.06 46.07 48.32 43.28 41.26 38.80 40.99 44.67 46.02 47.65 47.90 48.72 49.23 50.04 49.75 48.79 48.11 47.71 48.25 48.76 48.49 48.71 48.15 48.32 48.08 47.52 46.42 45.51 47.88 47.44 47.96 46.93
53.20 52.06 51.14 51.74 52.86 55.98 58.38 58.25 58.83 52.91 54.13 53.76 52.68 54.11 54.88 54.00 56.32 55.54 54.58 54.84 55.01 54.26 51.60 49.37 44.39 43.05 44.15 47.13 45.21 46.71 46.96 46.86 46.14 48.11 48.50 49.99 49.65 48.92 48.65 49.12 49.05 48.05 48.28 47.63 47.07 46.97 47.11 48.21 47.29 46.59 47.81 46.74 45.92 46.58
50.01 50.63 51.08 50.81 50.48 57.34 56.80 56.74 61.86 56.64 55.20 55.50 54.97 55.08 54.54 54.46 54.95 54.12 52.64 53.73 53.40 50.99 47.08 45.00 45.16 47.08 46.31 48.42 49.11 48.35 49.41 49.07 47.90 46.07 45.72 48.43 48.61 48.22 48.19 47.60 46.39 46.70 46.89 45.45 43.75 45.23 47.24 47.61 46.57 46.87 47.11 47.03 46.26 45.03
51.81 56.67 53.13 54.25 55.64 58.27 57.80 57.53 57.39 56.41 57.05 56.48 56.92 56.02 54.20 55.88 52.66 52.92 52.56 54.11 49.88 47.65 46.43 48.57 48.71 50.84 52.31 51.11 51.32 50.77 51.34 50.35 47.95 47.92 46.22 45.28 47.52 47.74 47.02 47.97 47.65 45.80 45.90 44.89 45.06 45.05 46.22 45.22 44.17 47.99 47.47 45.83 47.11 47.59
59.89 54.43 60.08 58.11 58.88 59.49 58.36 60.55 57.51 58.99 57.15 55.81 55.61 55.90 53.49 50.86 50.85 51.40 53.65 49.84 49.02 49.23 50.27 49.84 49.49 50.33 51.45 51.89 52.31 52.75 52.87 52.17 51.66 49.63 44.85 46.39 47.13 45.68 45.33 45.51 45.08 45.02 45.17 45.23 44.77 44.55 43.41 45.29 46.52 47.11 47.46 47.13 47.03 46.07
51.16 56.45 60.57 60.59 56.65 54.13 51.67 60.66 56.03 56.08 52.36 53.32 54.64 51.40 50.78 51.71 53.24 55.12 50.67 51.00 50.62 52.42 52.48 52.70 53.08 54.70 53.56 54.53 54.48 53.73 53.65 53.19 49.74 48.82 48.58 47.78 47.78 46.87 45.60 45.27 45.24 44.46 43.25 45.37 46.20 45.23 45.93 44.19 46.26 46.53 45.64 45.66 47.06 46.34
52.91 57.80 56.76 55.66 55.96 50.09 58.05 55.33 56.63 54.52 54.72 51.97 51.35 47.88 50.45 51.34 53.62 50.44 47.85 49.33 51.33 53.09 53.17 54.87 53.00 52.10 53.40 54.53 51.53 51.34 50.90 49.49 48.47 49.46 49.18 47.72 45.85 45.71 45.91 45.06 44.83 45.00 45.41 45.85 46.22 45.68 45.96 45.80 44.63 46.96 46.05 45.54 45.37 45.30
48.52 48.33 51.20 41.88 56.32 54.81 51.69 52.51 52.86 52.38 49.56 51.24 49.55 49.54 51.10 54.26 49.16 47.82 46.95 49.06 50.82 51.79 52.80 54.01 52.60 52.11 49.73 49.62 48.89 49.81 50.89 48.57 47.67 47.30 47.80 47.95 46.71 46.18 45.36 45.74 45.21 45.22 46.44 45.42 45.36 45.28 45.68 46.16 45.03 46.97 45.49 45.11 45.08 45.31
42.67 51.93 46.87 53.60 53.77 51.92 52.17 49.00 50.25 50.80 51.38 50.16 51.16 53.93 54.07 50.99 46.57 45.01 49.08 51.08 51.17 53.09 52.17 51.46 50.62 49.04 48.87 49.05 47.27 46.98 47.45 49.15 49.76 47.02 46.99 47.15 46.46 45.32 44.49 43.66 43.09 43.98 47.39 47.37 46.66 45.75 46.07 45.78 45.40 44.86 44.95 43.86 40.91 44.93
43.69 51.16 55.54 58.83 57.90 56.19 54.04 55.25 54.96 52.93 50.72 50.20 51.70 51.97 51.03 45.49 45.51 50.36 53.88 55.34 53.39 53.64 53.82 53.10 50.70 48.85 48.18 48.33 48.89 48.86 49.32 49.25 48.57 47.29 47.99 47.80 47.33 47.39 46.34 44.78 43.81 45.19 47.39 47.07 46.92 46.38 45.70 45.41 45.02 44.73 45.20 45.57 45.82 45.86
53.89 55.22 52.89 55.56 55.12 56.41 53.23 53.80 52.59 51.73 51.66 52.35 54.34 48.22 47.75 48.11 49.22 54.49 55.73 56.25 54.38 53.50 51.92 50.79 50.60 49.87 49.35 49.00 49.11 49.19 48.77 48.83 48.86 48.58 48.14 47.59 47.85 47.99 47.44 46.52 46.31 40.91 46.13 46.91 47.17 47.00 46.56 46.44 45.39 45.31 45.03 44.42 45.21 45.51
53.86 55.81 55.98 53.28 55.04 55.32 54.79 53.34 53.82 55.25 56.65 55.69 52.33 52.48 52.95 56.15 57.91 57.24 56.52 55.64 54.53 51.98 50.34 49.20 48.99 49.85 49.67 48.92 48.47 49.20 49.39 48.80 47.25 44.87 44.35 43.96 44.31 45.44 48.39 47.98 47.64 47.48 46.68 45.72 37.89 41.90 44.77 44.81 44.90 45.24 45.26 45.53 45.92 46.40
52.57 55.48 53.97 54.63 53.29 51.73 51.90 52.91 52.10 57.63 59.09 58.27 58.45 57.82 57.25 57.57 58.32 59.64 57.40 55.33 53.63 51.91 51.72 50.66 49.71 49.73 48.76 47.87 46.50 47.27 49.21 49.44 48.72 47.29 46.05 44.26 44.65 47.39 47.92 48.05 47.64 47.64 47.47 47.18 46.25 45.58 40.69 45.03 44.08 46.36 45.21 44.89 44.15 44.23
55.52 56.06 55.14 54.60 54.05 55.32 55.45 56.02 57.40 59.39 59.34 58.21 59.02 56.33 55.92 56.45 56.89 57.82 57.06 56.33 55.25 53.84 51.29 49.40 48.48 49.66 48.79 47.08 46.84 46.45 45.72 47.85 48.20 47.76 47.51 47.50 47.88 47.72 47.87 48.77 48.93 48.33 47.49 47.39 46.81 46.34 46.29 45.06 45.94 44.53 44.20 43.77 43.61 42.89
56.24 55.01 53.56 52.38 51.62 54.88 54.46 56.49 56.63 56.33 56.87 57.24 56.61 57.54 57.16 56.14 53.74 54.14 56.72 56.54 54.91 52.54 48.56 50.20 48.30 47.63 49.29 48.89 49.28 48.61 45.20 47.78 47.36 47.58 47.56 48.20 48.05 48.21 48.42 48.64 48.86 48.36 48.07 47.57 47.14 46.20 45.76 45.15 44.78 44.27 43.74 43.41 42.58 42.69
55.90 55.62 55.87 55.28 50.45 49.05 53.02 51.69 55.52 54.79 55.93 55.15 55.49 56.29 56.81 55.95 53.77 55.54 57.77 57.97 56.26 54.07 52.59 51.81 50.30 49.62 49.92 49.06 48.94 48.12 46.54 46.18 40.35 36.89 37.34 36.21 35.31 39.50 46.33 48.82 47.93 47.86 47.20 47.50 47.22 46.76 45.79 45.21 44.69 44.10 43.96 43.36 43.31 42.85

GFSWCAN_sfc_wetblb_084.txt.gz
Wetbulb
56.66 56.70 56.22 55.05 53.36 53.09 53.42 53.29 53.48 53.05 53.77 53.98 54.80 55.92 56.51 56.17 55.69 50.27 49.38 51.96 48.61 44.66 45.08 47.23 47.33 43.06 42.45 39.69 36.57 39.80 38.94 38.99 35.51 32.39 31.08 28.05 25.80 29.82 23.49 30.22 28.99 28.00 25.56 22.02 25.48 25.15 25.70 39.12 40.24 34.84 39.08 42.08 42.84 43.22
56.50 56.48 55.98 54.69 52.69 52.61 52.94 53.32 53.28 53.38 53.46 53.79 54.45 55.49 56.06 55.56 55.48 53.64 48.63 52.58 52.88 47.36 47.10 50.64 50.67 51.47 48.85 46.99 41.60 39.98 39.28 37.55 36.98 33.75 33.79 32.34 29.77 29.34 28.86 26.09 34.75 29.41 31.33 26.54 29.19 28.81 37.00 38.26 37.25 39.32 38.83 38.62 39.20 40.07
56.16 56.22 55.26 54.07 52.36 52.36 52.76 53.13 52.94 53.05 53.31 53.50 54.10 54.58 55.85 55.34 55.14 53.22 47.18 49.03 49.91 46.14 45.93 46.09 47.16 50.96 49.03 48.72 47.54 40.84 40.49 42.25 40.42 40.79 35.96 35.52 30.95 32.87 24.81 26.77 31.65 34.39 35.75 29.31 30.83 33.49 36.03 37.58 39.14 39.57 39.59 38.52 40.13 40.76
56.08 56.00 55.00 53.44 52.32 52.09 52.46 53.01 53.03 52.84 53.07 53.62 53.91 54.61 55.32 55.26 54.87 54.46 47.03 48.93 48.63 47.02 41.26 44.02 51.13 47.95 51.28 48.35 48.47 47.39 45.80 44.53 43.28 41.41 37.15 35.64 32.42 36.71 32.15 33.19 30.29 34.07 34.75 31.27 30.66 34.46 34.86 37.87 37.75 39.08 41.16 40.22 40.31 41.12
55.84 55.80 54.72 53.11 52.13 52.01 52.57 52.76 52.95 52.64 52.72 53.33 53.72 54.67 55.11 55.00 54.17 51.56 49.16 50.23 51.61 48.41 41.77 42.83 47.31 51.56 49.69 48.84 49.14 48.82 45.80 43.00 41.77 38.67 37.32 37.91 37.88 35.44 33.77 35.03 27.83 35.41 31.49 28.37 27.71 33.89 33.11 33.71 37.72 40.46 39.56 39.40 40.43 39.46
55.78 55.16 54.09 52.51 51.74 51.71 52.40 52.59 52.74 52.70 52.41 52.92 53.60 54.42 54.52 54.24 53.54 49.43 47.57 50.74 50.91 49.94 44.28 39.40 46.35 47.30 47.25 48.35 47.52 46.28 46.62 44.35 43.58 40.72 38.98 40.18 43.30 37.92 30.50 28.00 35.94 37.56 37.38 36.02 34.63 37.27 37.37 37.96 39.89 41.58 39.94 40.54 42.08 41.65
55.78 54.90 53.50 52.24 51.65 51.71 52.15 52.35 52.62 52.33 51.89 52.13 53.15 53.75 53.93 53.24 48.22 46.48 46.25 50.08 51.75 51.06 47.35 42.68 40.87 47.16 49.31 49.45 48.20 47.45 47.40 45.59 43.94 41.05 39.38 39.27 40.64 37.42 31.86 27.40 36.88 38.82 40.00 39.68 39.38 38.59 38.09 39.71 38.97 41.13 40.94 41.92 42.48 42.64
55.30 54.28 52.88 51.91 51.67 51.75 52.05 52.14 52.15 51.61 50.70 51.86 52.95 53.26 52.61 52.43 50.70 47.57 50.17 51.57 51.10 48.21 48.08 42.17 40.66 44.96 48.78 44.91 44.15 47.27 44.89 44.62 44.09 42.77 43.46 41.01 39.25 38.11 33.68 36.89 39.19 41.16 41.06 40.59 40.91 41.14 40.79 40.34 40.78 41.62 41.33 43.38 39.96 40.35
55.04 53.61 52.21 51.40 51.36 51.63 51.86 51.99 51.88 51.40 51.13 51.95 52.85 53.27 49.42 47.27 45.68 48.58 55.13 53.77 52.17 48.99 43.75 42.21 39.73 38.77 48.80 44.84 45.45 45.05 45.44 39.48 44.79 41.11 42.04 42.66 37.56 33.01 38.07 37.99 39.08 41.73 41.27 41.32 42.42 42.29 42.03 40.84 41.09 41.88 41.29 41.77 38.93 40.07
54.42 52.72 51.47 50.94 51.27 51.48 51.70 51.75 51.75 51.75 51.84 52.54 49.38 46.96 44.91 49.92 55.57 54.07 49.66 46.98 46.98 47.41 46.23 41.77 44.03 40.06 45.19 44.96 43.30 39.62 39.58 35.37 33.24 39.75 45.18 40.35 37.61 42.24 41.24 40.96 41.41 42.17 42.51 42.98 39.71 38.87 40.15 39.80 40.15 40.02 40.05 40.40 41.71 41.62
53.24 51.67 50.92 50.83 51.26 51.55 51.52 51.73 51.65 51.66 51.34 47.05 46.58 49.39 51.96 55.24 51.24 49.05 44.41 42.48 43.57 39.62 40.73 40.91 41.97 39.68 49.19 42.08 40.72 40.19 34.28 37.76 35.02 37.42 37.40 36.82 35.47 41.16 43.81 43.58 43.96 43.37 43.50 42.78 42.61 42.27 42.22 41.15 40.52 40.61 40.92 41.82 42.52 42.40
51.80 50.74 50.48 50.62 50.91 51.22 51.30 51.82 51.60 49.88 48.62 49.19 48.67 52.15 52.41 49.44 47.14 44.10 43.86 45.63 42.04 41.20 43.17 42.59 43.16 43.84 43.92 44.82 39.39 39.14 36.47 39.14 34.85 40.58 37.66 32.71 37.99 41.47 43.08 43.73 42.92 43.37 45.14 45.19 44.36 43.72 43.05 43.49 42.43 42.12 41.62 41.18 41.94 43.69
50.70 50.15 50.16 50.42 50.74 51.06 51.78 51.44 51.13 51.46 49.85 50.26 48.81 50.33 47.97 46.89 39.39 41.19 34.21 41.17 41.18 42.92 46.73 45.83 42.91 43.28 43.53 42.14 42.34 40.96 37.83 35.38 39.91 33.46 32.70 35.10 39.73 43.94 44.68 44.59 43.32 44.08 45.07 44.18 44.24 44.93 44.48 43.68 43.93 43.65 42.44 42.59 42.88 43.47
50.04 50.08 50.17 50.62 51.02 51.59 51.22 50.81 50.87 49.96 46.22 47.56 48.53 39.02 45.45 43.06 43.29 41.13 41.47 42.19 44.83 45.63 45.60 43.23 41.96 41.24 41.95 39.99 42.52 38.73 40.07 39.34 33.66 25.99 31.27 33.99 39.68 43.24 43.77 41.92 42.41 42.02 43.09 43.53 43.18 44.67 44.96 43.39 42.78 43.63 44.16 43.81 42.93 42.55
49.94 50.15 50.57 50.75 51.25 52.95 51.23 50.52 50.69 48.35 47.90 47.84 49.07 42.64 46.46 48.47 47.52 46.34 47.62 47.57 49.44 47.16 46.19 42.97 42.41 41.83 39.50 39.23 40.94 37.18 36.54 30.49 32.44 29.91 34.84 39.00 40.89 42.27 43.33 42.66 41.90 42.66 42.04 42.68 43.20 44.48 44.16 43.23 42.36 41.66 43.80 43.45 43.50 43.13
50.03 50.09 50.77 51.72 52.33 52.85 51.42 50.40 47.88 49.92 50.70 50.04 50.24 48.31 47.44 46.32 45.88 48.69 46.64 45.51 45.00 46.06 45.79 42.32 38.78 37.20 36.75 37.05 35.98 34.37 33.49 29.86 33.16 36.64 40.32 41.22 41.34 42.41 41.64 41.30 43.21 43.48 42.16 42.01 43.25 40.93 43.26 44.34 42.09 41.00 43.29 43.81 43.46 43.96
49.55 52.42 51.98 52.28 52.53 52.31 51.30 49.39 49.24 49.16 49.87 50.28 48.20 49.86 50.21 47.07 47.62 47.47 43.93 43.49 45.22 42.06 38.39 39.37 36.68 36.17 38.33 35.31 34.43 36.53 34.75 37.77 38.81 40.04 40.88 41.15 40.90 40.30 39.63 40.86 42.25 43.04 42.48 43.00 44.72 44.17 43.81 42.95 41.37 41.34 41.16 42.28 42.72 43.65
51.86 50.59 52.11 52.24 51.75 51.13 50.28 49.27 52.11 52.97 49.33 48.38 45.35 46.75 48.42 49.46 48.18 45.62 46.12 46.09 45.71 42.38 41.22 39.17 40.63 37.02 34.86 34.76 33.88 37.59 37.83 40.17 41.94 41.59 41.23 41.17 39.81 41.12 41.59 40.17 41.93 43.19 41.96 41.26 41.24 42.09 40.33 40.62 41.02 39.79 40.81 41.61 42.85 42.24
48.92 48.38 50.75 51.99 50.19 50.19 53.36 51.51 51.57 50.30 50.33 48.41 49.02 48.31 48.59 50.65 48.60 48.03 47.26 47.09 47.47 46.98 43.66 41.09 38.70 36.26 35.94 38.07 38.08 39.19 39.52 39.48 39.18 40.86 40.87 41.67 41.91 42.08 41.52 43.15 41.77 40.35 42.01 40.12 38.70 40.19 41.30 42.28 42.35 41.79 42.05 41.32 40.56 42.35
50.22 50.71 50.52 50.29 50.69 48.45 51.63 52.85 55.89 50.95 48.30 51.85 52.04 50.89 48.61 46.76 48.04 47.67 46.91 46.54 45.68 43.77 39.77 38.55 38.01 38.21 37.48 39.31 40.70 41.56 41.53 41.66 40.18 38.79 37.87 40.34 41.03 41.31 42.56 40.49 39.68 39.65 39.13 40.60 40.94 41.39 40.57 42.10 42.15 42.63 42.83 40.67 40.90 40.37
52.26 50.56 51.08 49.01 46.78 48.25 51.14 52.78 51.66 51.90 53.21 50.32 51.20 49.54 47.32 48.13 46.53 45.86 45.98 46.52 41.73 39.36 39.04 40.23 41.42 41.82 43.25 42.53 44.33 44.55 43.51 42.64 41.39 41.29 40.75 37.99 40.50 40.09 40.29 40.30 39.01 38.45 38.04 40.04 39.17 42.12 41.99 40.58 41.14 43.20 41.47 40.18 39.68 40.07
51.41 52.96 50.86 49.79 51.75 53.81 50.76 53.63 51.13 53.02 51.57 50.07 49.26 49.21 45.83 44.07 44.35 45.02 46.35 43.09 40.55 41.50 42.48 41.55 41.47 43.85 44.65 44.64 45.03 44.98 45.70 45.43 43.44 43.06 43.17 41.38 37.92 36.65 35.40 37.54 37.90 36.83 37.53 38.55 38.25 38.40 42.27 42.41 42.71 43.15 41.84 40.62 40.20 39.15
52.13 52.57 52.59 54.73 52.58 48.80 45.85 54.80 51.80 50.19 47.73 49.12 50.66 48.56 46.43 45.00 46.50 48.08 43.94 44.02 43.23 45.05 44.72 43.88 44.13 45.86 45.07 49.40 49.62 48.62 47.00 45.84 44.19 43.45 42.40 40.10 38.47 37.22 36.44 37.47 38.04 37.81 37.23 38.04 38.86 39.52 41.74 41.40 41.04 41.45 41.74 42.49 40.88 39.71
53.00 50.49 50.64 51.90 50.47 44.81 52.74 51.15 52.28 50.97 49.03 48.10 47.11 44.53 45.24 44.93 47.62 44.68 42.96 43.30 44.62 45.15 44.59 44.91 45.80 46.10 47.66 46.88 44.50 41.67 41.15 42.02 41.64 40.84 40.27 40.06 37.16 34.73 35.76 36.22 36.68 37.88 39.16 38.81 38.76 40.40 42.42 43.25 42.20 40.35 39.93 39.79 40.52 41.36
44.34 43.83 45.74 38.12 49.42 50.28 49.74 50.07 50.48 49.93 48.24 48.76 46.10 44.16 45.21 46.31 43.99 43.20 41.24 41.82 43.95 44.32 45.21 46.63 46.09 44.58 43.68 41.66 40.04 39.37 40.62 40.06 37.87 36.98 37.33 38.36 37.28 35.66 36.08 37.19 37.50 37.94 39.46 39.50 39.10 38.96 39.76 41.13 40.94 40.59 41.08 40.41 39.41 39.15
38.51 46.14 43.00 48.60 48.17 48.34 48.83 48.11 48.88 48.60 49.71 48.61 49.17 49.20 47.61 45.73 44.86 42.63 42.27 43.58 43.91 45.41 44.05 42.83 41.50 40.32 39.10 39.36 38.66 38.38 39.11 39.89 38.50 37.54 36.43 38.15 38.03 36.65 35.08 35.38 35.97 37.15 39.50 39.92 41.23 40.73 40.53 40.99 40.72 40.43 40.41 40.64 39.38 39.60
40.22 45.45 49.15 51.33 49.94 51.21 49.72 50.63 52.28 48.82 46.61 46.06 46.22 47.59 45.78 43.33 43.50 44.28 46.58 46.86 44.86 45.02 44.56 43.12 43.81 42.33 40.76 38.90 39.97 40.65 40.95 40.38 39.37 38.75 38.73 38.62 38.34 38.96 38.50 36.23 36.32 37.61 40.26 41.74 41.21 41.42 40.77 40.46 40.54 41.22 40.16 39.38 40.01 40.61
47.04 48.37 46.49 48.42 49.50 52.36 49.82 50.14 48.16 47.53 49.06 49.80 49.24 46.91 44.91 45.40 44.37 48.15 47.18 46.80 46.30 44.01 43.44 42.24 42.36 43.07 42.77 41.40 42.47 41.98 40.61 40.73 40.51 39.47 38.76 38.17 37.80 38.37 38.38 38.17 38.79 39.89 38.95 40.14 40.55 40.82 40.74 40.39 39.67 39.86 40.15 39.63 38.85 38.79
46.14 49.00 48.69 46.85 49.19 49.82 49.80 49.37 49.17 50.34 52.40 52.06 50.37 48.85 49.77 50.81 51.20 47.60 45.74 46.01 46.10 44.25 41.93 40.53 39.88 40.59 40.60 40.87 41.35 41.61 41.31 40.18 39.07 37.14 36.07 34.44 34.94 35.96 37.43 37.64 38.17 38.28 37.60 37.56 38.69 38.75 39.57 38.85 38.46 38.35 39.73 38.85 39.01 38.34
45.18 47.88 46.02 47.14 46.75 47.97 49.96 51.18 50.96 52.12 52.09 52.96 53.12 51.81 52.81 53.14 52.12 50.40 47.94 45.50 44.81 43.71 43.89 43.60 42.43 40.75 39.34 38.60 37.59 38.23 39.35 40.48 40.66 40.34 38.28 37.03 37.99 39.31 38.93 38.98 38.70 38.41 37.48 37.81 37.55 37.54 39.29 39.38 40.07 40.04 38.71 37.97 37.64 36.40
48.23 47.05 46.64 47.47 48.51 49.62 52.10 52.95 52.64 51.48 50.56 50.13 52.06 50.87 51.93 53.27 53.89 53.46 50.34 48.99 47.00 45.38 45.32 42.39 41.41 42.47 41.76 39.16 38.59 38.00 37.53 38.61 40.09 40.99 40.90 40.20 40.20 40.28 41.65 40.67 40.19 39.72 38.92 38.87 39.23 38.91 38.16 38.22 38.33 37.93 37.65 37.26 37.66 36.90
47.52 47.72 46.62 47.66 49.05 52.31 53.90 52.53 51.01 50.52 50.94 51.25 52.08 53.32 52.31 50.85 50.47 52.71 53.52 51.23 47.06 43.44 43.70 43.75 41.97 40.50 41.34 41.39 41.84 40.70 40.44 40.34 40.22 41.02 41.56 41.04 40.77 40.99 40.50 40.34 40.48 40.45 40.50 41.01 40.44 39.59 40.00 39.02 37.93 37.86 37.54 37.64 36.79 36.90
48.69 50.69 51.29 51.79 50.04 49.88 51.76 49.67 49.63 48.90 50.39 50.26 50.93 52.03 52.28 51.72 50.51 53.53 54.29 52.56 50.49 46.34 44.52 44.28 45.11 43.87 42.60 42.20 41.38 39.92 38.67 37.39 37.35 37.55 37.83 38.13 37.98 38.86 40.11 39.61 40.51 41.73 41.42 40.56 40.20 40.36 40.09 39.96 38.85 38.52 38.21 38.05 38.16 38.52

GFSWCAN_sfc_wetblb_087.txt.gz
Wetbulb
55.45 55.71 56.60 56.48 55.60 53.55 53.11 53.38 53.20 53.32 53.52 53.83 54.27 55.11 55.78 55.57 55.33 49.52 49.19 49.89 47.25 43.23 44.48 45.93 45.71 42.13 40.66 38.21 35.94 38.51 37.68 37.62 34.28 31.15 30.04 25.83 24.79 28.93 21.16 25.29 27.43 26.03 22.53 21.01 24.13 28.29 25.47 39.03 38.75 32.24 35.86 36.71 38.72 39.55
55.15 55.49 56.39 56.23 55.10 52.82 52.74 53.07 53.28 53.20 53.42 53.57 53.98 54.49 55.63 55.22 55.06 51.90 47.86 49.67 50.29 46.10 45.75 48.57 48.97 49.59 48.53 45.72 40.56 37.47 37.27 36.19 35.77 33.06 31.67 30.12 27.04 27.85 26.19 21.07 31.66 25.49 29.36 25.75 28.27 27.88 35.40 37.11 35.50 37.79 37.08 35.27 36.06 36.61
54.83 55.35 55.81 55.49 54.35 52.45 52.39 52.95 53.16 52.87 52.85 53.36 53.65 54.41 55.02 55.16 54.98 51.43 45.23 46.57 47.69 44.60 44.74 44.90 46.57 50.35 47.08 47.33 46.56 39.79 38.61 40.74 38.64 38.61 34.70 33.79 29.97 30.44 24.32 25.50 28.51 32.78 34.20 27.45 30.33 31.22 35.46 36.68 38.02 38.32 38.74 37.42 38.37 38.43
54.63 55.51 55.75 55.22 53.47 52.16 52.10 52.72 53.11 52.79 52.70 53.13 53.46 54.10 55.00 54.81 54.45 53.05 45.82 46.50 47.45 44.86 39.83 42.66 49.90 46.72 48.77 47.02 46.98 46.17 44.12 42.36 41.12 39.02 35.19 34.01 30.91 35.26 29.68 30.94 29.17 32.97 33.68 30.36 29.28 33.25 34.09 36.67 37.65 37.89 38.99 40.10 39.51 39.87
54.25 55.51 55.57 54.87 52.58 51.64 52.03 52.39 52.91 52.83 52.50 52.79 53.32 53.91 54.83 54.55 53.61 49.74 46.99 48.12 49.30 46.29 40.11 41.28 45.78 48.26 48.46 46.23 47.15 45.59 43.88 41.69 39.87 37.89 35.81 34.78 36.08 35.03 32.35 33.40 26.44 34.21 31.53 28.98 28.47 33.50 33.42 33.36 37.63 38.85 38.65 38.81 39.43 39.13
53.95 55.17 55.01 54.21 52.06 51.24 51.91 52.31 52.68 52.69 52.44 52.39 52.91 53.47 54.34 53.73 52.40 48.48 46.23 49.20 49.62 48.48 42.90 38.57 44.14 46.39 46.81 46.68 46.09 44.67 45.82 43.97 42.35 39.62 38.07 39.40 40.55 36.34 30.37 28.52 34.21 36.05 35.86 36.22 34.21 35.01 35.72 36.16 38.24 39.41 39.12 40.00 40.51 41.81
53.75 54.73 54.59 53.68 51.78 51.09 51.53 52.00 52.27 52.12 51.70 51.52 52.28 53.02 53.22 52.67 47.15 45.70 45.19 48.94 51.51 51.11 46.52 39.89 39.27 45.35 48.39 47.27 47.39 47.51 47.92 45.85 44.86 42.06 38.40 38.65 38.52 39.11 33.35 29.89 36.00 37.44 38.68 37.90 37.00 38.20 36.39 38.43 37.92 40.02 40.37 41.33 42.84 44.01
53.75 54.41 54.23 53.03 51.41 51.22 51.51 51.93 51.92 51.70 50.79 51.30 52.22 52.65 52.30 51.42 50.14 47.15 49.49 51.14 49.84 49.15 46.98 41.85 40.49 43.04 47.75 45.03 44.09 47.20 44.85 44.82 44.82 43.73 43.69 41.48 40.84 39.84 34.14 37.53 37.49 39.34 39.11 38.33 39.26 39.78 40.09 38.07 38.09 39.62 40.62 40.98 40.77 41.55
53.57 54.29 53.67 52.07 51.11 51.00 51.17 51.77 51.68 51.29 51.14 51.67 52.40 52.78 48.53 46.59 44.86 48.70 54.90 53.69 51.95 49.07 43.57 41.90 37.10 35.27 46.22 43.56 45.12 44.78 44.07 38.68 42.90 38.61 40.27 42.40 38.59 33.73 38.50 38.54 38.62 40.48 39.99 41.03 42.10 41.10 40.25 39.39 40.01 40.10 40.25 40.18 38.89 41.48
53.58 53.91 52.68 51.24 50.81 50.81 51.09 51.36 51.68 51.39 51.53 51.98 48.73 46.25 44.45 48.00 55.36 54.40 48.48 46.44 46.20 46.56 46.07 41.33 40.17 40.63 42.37 42.93 42.33 39.47 37.63 34.38 33.52 38.16 43.58 39.19 37.36 42.05 43.12 42.67 41.51 41.26 43.37 42.83 39.09 37.69 38.66 38.62 39.58 39.39 39.25 39.63 39.50 40.45
53.78 53.00 51.49 50.74 50.60 50.67 51.08 51.27 51.52 50.94 50.59 46.55 45.44 45.53 49.38 54.63 49.30 46.92 42.25 41.18 42.62 38.57 38.35 39.73 39.60 40.91 48.26 42.50 39.01 40.16 35.66 36.80 34.79 37.72 36.39 34.40 35.25 40.25 43.36 43.67 42.06 41.77 42.52 42.09 42.26 41.53 40.70 40.36 39.57 39.24 39.56 40.45 40.54 40.07
52.86 51.53 50.72 50.44 50.42 50.76 51.00 50.85 51.34 49.12 46.07 47.99 47.91 49.57 50.28 46.59 45.01 43.93 44.07 43.99 42.22 37.54 40.86 40.52 42.05 43.21 45.10 43.07 39.01 36.58 37.20 38.22 34.29 38.80 36.94 31.41 34.55 39.49 41.34 44.10 43.73 42.18 42.86 44.44 44.17 42.93 42.80 42.68 41.45 40.96 40.27 40.04 39.62 40.43
51.39 50.52 49.97 50.08 50.49 50.68 51.07 51.68 51.37 50.84 49.54 48.56 47.24 49.41 46.52 44.93 36.91 38.03 33.31 37.93 37.67 40.81 43.05 42.00 39.57 42.29 40.84 40.19 40.25 39.70 36.84 32.85 37.80 31.11 31.77 32.29 36.66 40.06 41.81 42.36 44.42 45.01 45.18 43.51 42.99 43.49 44.27 42.92 42.99 42.23 41.45 40.96 39.73 40.40
50.09 49.72 49.83 50.19 50.56 50.72 51.05 50.82 51.03 50.50 46.23 46.56 47.04 38.97 45.44 40.04 40.75 39.75 39.94 42.21 44.15 43.40 42.80 41.12 39.65 39.60 39.39 38.51 39.45 35.54 36.27 36.71 31.78 24.37 29.67 33.40 35.76 38.93 40.93 42.31 41.95 41.43 42.87 43.38 43.53 44.03 43.57 43.03 42.64 42.53 42.72 42.37 41.23 39.94
49.49 49.73 50.12 50.40 50.75 51.67 50.28 50.14 50.79 48.03 46.48 46.32 48.00 41.14 45.26 46.21 45.35 44.83 45.29 44.31 45.73 45.04 43.69 41.04 40.55 39.96 37.70 37.16 37.10 35.18 34.77 29.99 29.70 28.06 33.08 36.13 37.63 38.33 38.95 40.61 40.55 41.07 41.33 40.81 40.57 41.26 42.80 43.78 42.47 42.29 42.74 42.60 41.70 41.16
49.70 49.71 50.74 51.40 52.38 51.49 50.22 49.72 49.39 47.64 48.30 47.36 48.01 46.49 45.20 45.54 44.14 46.12 44.90 44.32 44.10 44.21 44.00 40.79 37.55 35.02 35.26 35.44 34.53 32.49 31.71 28.23 31.99 35.11 37.93 37.86 38.19 38.99 38.76 40.07 39.79 41.26 40.56 40.94 40.95 40.51 41.21 42.79 42.14 41.62 41.99 43.65 42.29 41.53
50.03 51.46 51.48 51.72 52.33 51.35 50.38 48.78 47.71 47.56 47.87 48.35 46.52 47.76 49.60 45.09 44.50 45.01 41.51 41.47 42.09 39.58 36.78 37.26 35.21 34.21 36.73 33.40 32.36 34.93 32.75 35.10 39.73 40.90 40.19 39.03 38.11 37.86 39.02 40.63 41.35 41.80 42.79 43.26 41.13 41.59 40.93 42.03 42.98 41.65 40.84 41.18 41.25 42.55
50.11 50.23 51.90 51.86 51.03 50.29 48.34 48.32 50.12 50.52 47.51 47.51 43.76 44.23 46.34 46.58 46.26 45.89 44.08 43.72 43.27 40.59 39.15 38.31 38.44 34.40 33.11 32.73 32.18 35.28 36.22 37.70 39.68 39.15 39.67 38.92 38.61 39.99 41.92 42.15 41.30 40.13 39.62 40.42 42.46 41.64 40.28 41.44 40.43 40.04 41.09 39.84 40.66 41.31
48.14 49.19 51.35 51.73 50.45 49.25 51.58 49.80 49.13 48.33 48.68 47.58 47.94 46.75 46.43 47.11 49.18 46.44 45.28 44.32 44.73 43.93 41.74 39.01 36.87 34.39 34.45 35.88 36.94 37.57 37.99 37.50 37.13 38.79 38.75 39.50 40.04 41.23 41.28 40.00 39.08 37.42 38.11 38.34 39.55 41.40 39.88 39.99 42.32 43.63 43.24 40.66 38.85 40.84
50.41 50.70 50.14 50.05 50.22 47.13 49.25 50.63 53.37 48.76 47.17 48.79 49.15 47.20 45.85 46.07 46.21 46.07 44.84 44.18 43.48 41.26 37.92 37.34 37.07 37.65 37.68 37.71 39.07 39.20 39.55 39.71 37.95 35.88 37.66 38.93 39.45 39.01 38.73 38.49 38.33 37.16 37.11 37.96 38.73 40.99 40.22 41.67 42.70 42.96 43.66 40.82 39.27 38.89
50.19 49.87 50.63 48.06 45.70 46.52 48.17 49.34 49.56 50.40 50.12 46.67 50.35 48.30 46.64 45.85 44.52 44.27 43.93 43.60 39.55 38.13 37.57 38.70 39.30 39.64 38.96 39.58 40.72 41.21 40.96 40.09 39.37 38.81 37.67 37.41 38.72 38.50 38.35 38.32 36.71 36.35 35.59 36.08 37.04 40.06 41.89 40.52 40.01 41.81 39.35 38.59 38.51 38.43
48.27 51.55 48.19 48.14 49.01 50.53 47.55 50.31 49.44 50.71 49.63 48.81 47.40 47.38 44.34 43.42 43.27 43.55 44.19 41.62 39.54 39.87 39.99 39.64 39.19 41.22 42.11 42.09 44.41 43.39 45.28 42.32 41.24 40.10 40.20 39.70 37.39 35.21 36.22 38.00 36.57 35.01 35.79 36.10 36.82 37.27 39.89 40.88 42.12 41.53 40.56 38.82 37.58 36.25
51.60 51.35 50.94 51.85 50.79 46.97 45.70 52.84 50.20 49.62 46.84 46.27 47.30 46.05 45.11 43.81 44.83 45.12 41.63 41.74 41.93 41.97 42.18 41.27 41.15 41.56 42.75 44.59 45.36 45.56 44.52 43.06 41.22 40.47 39.82 37.69 35.59 34.98 35.26 36.64 35.59 35.93 35.52 36.20 37.07 38.81 39.29 39.54 40.71 41.36 40.73 38.52 37.34 35.94
50.27 48.59 47.97 49.73 49.28 43.85 50.12 49.35 50.65 49.09 47.70 47.72 45.78 43.87 44.76 44.97 45.47 42.41 41.10 41.64 43.41 42.10 42.42 42.51 43.00 44.77 44.57 44.25 42.71 38.74 38.79 41.94 41.44 39.81 38.41 35.58 33.58 32.74 34.65 35.54 35.92 36.58 36.40 36.97 37.57 38.22 39.15 39.50 39.47 38.28 38.33 38.65 38.31 37.46
42.61 42.33 44.68 37.34 47.52 48.74 48.73 48.79 48.20 47.45 48.41 46.99 45.09 43.67 44.77 44.69 42.12 41.33 41.37 41.33 41.70 42.01 41.77 43.25 44.13 44.31 43.65 38.75 36.26 36.57 37.35 36.35 36.33 34.95 34.26 34.89 33.06 33.29 34.13 34.36 35.44 35.88 37.18 37.60 37.73 38.20 38.17 39.07 39.21 39.49 39.57 38.43 37.77 37.04
37.99 44.21 41.49 46.32 46.74 46.84 47.34 46.47 46.89 47.94 47.17 46.85 46.66 47.08 45.73 43.86 42.97 41.82 40.85 41.54 41.70 43.22 43.87 42.97 41.33 38.31 36.56 36.68 36.28 36.12 36.19 35.04 37.06 35.53 33.88 34.93 36.25 35.92 34.86 35.60 35.31 36.34 37.30 38.91 39.24 39.27 38.96 38.94 38.95 39.04 39.10 39.06 38.36 37.92
38.47 43.27 46.27 48.30 47.09 47.97 47.54 48.28 50.37 47.68 45.77 44.67 44.98 46.93 45.02 41.16 42.03 43.50 44.22 44.32 43.13 42.77 42.26 41.51 42.81 39.51 37.66 36.83 36.80 36.94 36.53 35.81 37.11 36.86 36.04 36.11 36.48 36.71 37.14 35.78 35.35 36.84 37.61 40.28 39.90 40.15 39.51 39.18 39.06 39.83 39.29 38.99 38.40 39.23
45.02 45.35 44.42 45.41 46.61 47.94 46.68 46.94 46.73 46.41 46.76 48.28 49.11 46.44 45.43 45.51 43.90 47.33 46.60 44.73 43.14 41.36 41.58 39.16 39.39 41.75 40.71 39.50 39.06 38.30 36.46 36.18 36.77 35.81 36.33 35.78 34.69 35.46 36.43 37.35 37.84 38.60 38.73 40.18 40.08 39.78 39.76 38.79 38.04 38.47 38.21 37.08 35.58 36.88
43.60 45.73 45.80 44.17 46.11 46.54 48.35 48.17 47.63 49.39 50.86 49.44 48.76 47.42 48.24 50.12 51.16 50.45 45.41 41.27 40.11 43.11 41.01 39.12 38.40 39.07 39.37 38.95 38.61 39.31 39.94 39.48 37.06 35.19 34.13 32.44 32.76 34.99 35.06 36.10 36.68 36.17 36.03 36.99 38.31 38.56 38.63 37.50 38.01 38.75 38.54 37.08 36.17 36.12
41.80 45.10 42.86 43.85 43.87 43.59 47.44 48.78 48.19 49.56 50.61 50.85 51.12 50.04 50.30 51.04 52.00 49.70 44.49 42.77 41.80 42.20 42.24 41.85 40.88 42.19 40.60 39.98 38.49 37.79 38.38 39.03 40.36 39.49 36.03 34.49 34.95 36.22 35.66 36.19 36.35 35.86 35.04 35.33 35.64 35.97 38.40 38.42 38.13 37.11 37.47 36.14 35.19 35.79
43.80 43.32 42.59 42.61 42.83 46.01 49.34 51.59 53.20 52.92 50.38 48.26 50.03 48.98 49.14 50.59 52.44 52.47 48.14 45.90 43.97 42.44 41.10 40.41 40.08 40.86 41.19 37.77 37.78 37.96 37.31 37.62 38.27 39.82 40.16 38.98 37.54 38.19 37.22 37.31 37.26 36.72 35.76 36.29 36.64 36.76 37.10 36.73 35.98 35.93 35.96 35.37 35.43 35.23
43.70 43.88 43.26 43.67 45.95 50.07 52.07 50.57 50.78 48.76 48.86 48.74 49.43 50.69 50.06 48.65 48.16 50.95 53.59 49.51 45.73 43.77 43.50 42.98 42.50 41.67 41.47 40.60 41.59 39.64 38.25 38.03 37.63 38.60 39.39 38.91 39.19 40.66 40.41 38.71 38.07 37.91 37.86 37.70 38.71 37.89 38.22 37.24 36.16 36.09 36.16 36.29 36.21 36.52
45.35 48.29 49.06 48.76 47.57 48.38 49.93 49.24 48.26 47.42 48.81 47.92 48.30 49.38 49.87 49.19 48.29 51.00 54.18 46.88 46.64 46.91 44.09 42.62 42.55 42.06 41.91 41.89 40.96 39.58 39.33 40.15 38.69 38.11 38.49 38.36 38.63 38.38 38.90 38.41 38.31 39.16 39.09 38.48 38.42 37.90 38.16 37.76 37.03 36.86 36.73 36.67 36.99 36.98